CSN8031 ZGSZ-MMMX

Flight info

Callsign CSN8031
Flight time N/A
Altitude 33100
Route IDUMA1 IDUMA W41 OMDUP G471 EGEDA/K0932S1040 G471 PLT/K0924S1010 A599 JTN G327 TONIX/K0909S1070 G327 LAMEN/N0492F350 A593 SADLI Y590 BEDAR Y591 FUE Y23 KASTE Y81 TASOT Y57 POROT Y809 IDLAN Y812 ADNAP OTR7 EMRON DCT 42N160E/N0489F370 45N170E 47N180E 47N170W 46N160W/N0484F390 45N150W 44N145W 43N140W 40N130W DCT FATMO DCT VTU/N0479F410 DCT LAX J1 OCN DCT TCATE DCT PPE UT10 ZCL UT130 DARAN DARAN3A
Aircraft A359/H-SDE2E3GHIJ3J4J5LM1ORWXY/LB1D1

Departure

Time 2026-04-17 11:56
Airport Shenzhen Bao'an International Airport (ZGSZ)

Arrival

Time N/A
Airport Mexico City Benito Juárez International Airport (MMMX)
Time Latitude Longitude Altitude Speed Heading
2026-04-17 11:28 22.63066 113.80550 22 ft 0 kts 63°
2026-04-17 11:45 22.63061 113.80539 27 ft 2 kts 63°
2026-04-17 11:45 22.63053 113.80524 26 ft 1 kts 62°
2026-04-17 11:46 22.63047 113.80511 27 ft 2 kts 62°
2026-04-17 11:46 22.63039 113.80495 26 ft 2 kts 60°
2026-04-17 11:46 22.63027 113.80483 27 ft 2 kts 10°
2026-04-17 11:46 22.63011 113.80484 26 ft 2 kts 341°
2026-04-17 11:47 22.63008 113.80485 25 ft 0 kts 336°
2026-04-17 11:50 22.63009 113.80485 25 ft 1 kts 336°
2026-04-17 11:50 22.63048 113.80456 25 ft 8 kts 311°
2026-04-17 11:50 22.63050 113.80408 23 ft 7 kts 263°
2026-04-17 11:50 22.63036 113.80362 24 ft 7 kts 248°
2026-04-17 11:51 22.63017 113.80317 25 ft 7 kts 245°
2026-04-17 11:51 22.62996 113.80272 25 ft 7 kts 242°
2026-04-17 11:51 22.62973 113.80224 24 ft 7 kts 243°
2026-04-17 11:51 22.62969 113.80188 26 ft 4 kts 292°
2026-04-17 11:52 22.62986 113.80165 24 ft 7 kts 318°
2026-04-17 11:52 22.63150 113.80070 24 ft 44 kts 333°
2026-04-17 11:52 22.63432 113.79913 23 ft 45 kts 333°
2026-04-17 11:52 22.63705 113.79761 26 ft 43 kts 333°
2026-04-17 11:53 22.63968 113.79621 24 ft 41 kts 334°
2026-04-17 11:53 22.64214 113.79477 24 ft 39 kts 330°
2026-04-17 11:53 22.64449 113.79345 26 ft 37 kts 335°
2026-04-17 11:53 22.64676 113.79229 27 ft 36 kts 334°
2026-04-17 11:54 22.64895 113.79111 25 ft 34 kts 333°
2026-04-17 11:54 22.65108 113.78995 28 ft 36 kts 333°
2026-04-17 11:54 22.65331 113.78872 25 ft 35 kts 332°
2026-04-17 11:54 22.65523 113.78753 30 ft 22 kts 302°
2026-04-17 11:55 22.65491 113.78606 29 ft 20 kts 243°
2026-04-17 11:55 22.65416 113.78518 25 ft 12 kts 187°
2026-04-17 11:55 22.65340 113.78543 28 ft 11 kts 155°
2026-04-17 11:55 22.65210 113.78610 26 ft 47 kts 155°
2026-04-17 11:56 22.65097 113.78674 26 ft 68 kts 151°
2026-04-17 11:56 22.64716 113.78887 31 ft 112 kts 153°
2026-04-17 11:56 22.63843 113.79365 29 ft 167 kts 153°
2026-04-17 11:56 22.62752 113.79950 627 ft 161 kts 156°
2026-04-17 11:57 22.61835 113.80395 1424 ft 127 kts 160°
2026-04-17 11:57 22.60963 113.80692 1531 ft 152 kts 168°
2026-04-17 11:57 22.59818 113.80947 1534 ft 177 kts 174°
2026-04-17 11:57 22.58541 113.81060 1534 ft 193 kts 177°
2026-04-17 11:58 22.57167 113.81188 1707 ft 204 kts 175°
2026-04-17 11:58 22.55718 113.81367 1912 ft 216 kts 174°
2026-04-17 11:58 22.54179 113.81588 2095 ft 229 kts 173°
2026-04-17 11:58 22.52575 113.81839 2406 ft 237 kts 174°
2026-04-17 11:59 22.50926 113.81838 2838 ft 237 kts 193°
2026-04-17 11:59 22.49459 113.81050 3218 ft 239 kts 224°
2026-04-17 11:59 22.48566 113.79544 3571 ft 242 kts 254°
2026-04-17 11:59 22.48293 113.77753 4013 ft 242 kts 265°
2026-04-17 12:00 22.48206 113.76548 4309 ft 243 kts 266°
2026-04-17 12:00 22.48056 113.74126 4885 ft 245 kts 268°
2026-04-17 12:00 22.48264 113.72307 5314 ft 246 kts 289°
2026-04-17 12:00 22.49193 113.70761 5716 ft 251 kts 316°
2026-04-17 12:01 22.50770 113.69838 5904 ft 266 kts 341°
2026-04-17 12:01 22.52609 113.69373 6196 ft 275 kts 346°
2026-04-17 12:01 22.54499 113.68974 6578 ft 278 kts 346°
2026-04-17 12:01 22.56402 113.68578 7034 ft 280 kts 347°
2026-04-17 12:02 22.58366 113.68538 7414 ft 289 kts
2026-04-17 12:02 22.60238 113.69388 7766 ft 298 kts 32°
2026-04-17 12:02 22.61903 113.70759 8183 ft 302 kts 37°
2026-04-17 12:02 22.63532 113.72213 8608 ft 305 kts 38°
2026-04-17 12:03 22.65178 113.73683 9022 ft 308 kts 37°
2026-04-17 12:03 22.66847 113.75163 9427 ft 311 kts 37°
2026-04-17 12:03 22.68530 113.76647 9856 ft 314 kts 37°
2026-04-17 12:03 22.70238 113.78146 10197 ft 319 kts 37°
2026-04-17 12:04 22.71970 113.79663 10379 ft 330 kts 37°
2026-04-17 12:04 22.73784 113.81251 10561 ft 340 kts 37°
2026-04-17 12:04 22.75662 113.82896 10763 ft 351 kts 37°
2026-04-17 12:04 22.77592 113.84586 10934 ft 361 kts 37°
2026-04-17 12:05 22.79572 113.86320 11119 ft 371 kts 37°
2026-04-17 12:05 22.81603 113.88101 11328 ft 380 kts 37°
2026-04-17 12:05 22.83687 113.89928 11529 ft 389 kts 37°
2026-04-17 12:05 22.85810 113.91791 11806 ft 394 kts 37°
2026-04-17 12:06 22.87975 113.93647 12177 ft 396 kts 32°
2026-04-17 12:06 22.90376 113.95071 12538 ft 393 kts 17°
2026-04-17 12:06 22.92991 113.95889 12935 ft 391 kts
2026-04-17 12:06 22.95654 113.96456 13336 ft 391 kts
2026-04-17 12:07 22.98310 113.96894 13717 ft 391 kts
2026-04-17 12:07 23.01015 113.97296 14054 ft 393 kts
2026-04-17 12:07 23.03732 113.97700 14372 ft 395 kts
2026-04-17 12:07 23.06461 113.98125 14690 ft 397 kts
2026-04-17 12:08 23.09202 113.98572 15015 ft 400 kts
2026-04-17 12:08 23.11963 113.99039 15337 ft 402 kts
2026-04-17 12:08 23.14732 113.99519 15672 ft 404 kts
2026-04-17 12:08 23.17512 114.00006 16022 ft 405 kts
2026-04-17 12:09 23.20295 114.00495 16368 ft 406 kts
2026-04-17 12:09 23.23097 114.00987 16705 ft 407 kts
2026-04-17 12:09 23.25900 114.01479 17042 ft 409 kts
2026-04-17 12:09 23.28719 114.01826 17394 ft 406 kts 357°
2026-04-17 12:10 23.31540 114.01881 17716 ft 406 kts 354°
2026-04-17 12:10 23.34365 114.01837 18078 ft 406 kts 353°
2026-04-17 12:10 23.36240 114.01772 18305 ft 406 kts 352°
2026-04-17 12:10 23.39068 114.01646 18555 ft 408 kts 352°
2026-04-17 12:11 23.42850 114.01453 18858 ft 411 kts 352°
2026-04-17 12:11 23.45720 114.01383 19100 ft 416 kts 357°
2026-04-17 12:11 23.48624 114.01792 19306 ft 426 kts
2026-04-17 12:12 23.53252 114.04012 19635 ft 443 kts 27°
2026-04-17 12:12 23.55780 114.05882 19889 ft 447 kts 32°
2026-04-17 12:12 23.58267 114.07932 20111 ft 450 kts 34°
2026-04-17 12:12 23.60735 114.10062 20304 ft 454 kts 35°
2026-04-17 12:13 23.63199 114.12216 20574 ft 455 kts 35°
2026-04-17 12:13 23.65678 114.14373 20823 ft 456 kts 34°
2026-04-17 12:13 23.68175 114.16522 21075 ft 458 kts 34°
2026-04-17 12:13 23.70686 114.18660 21292 ft 459 kts 34°
2026-04-17 12:14 23.73224 114.20807 21492 ft 462 kts 34°
2026-04-17 12:14 23.75773 114.22954 21693 ft 463 kts 34°
2026-04-17 12:14 23.78338 114.25108 21922 ft 465 kts 34°
2026-04-17 12:14 23.80914 114.27276 22108 ft 467 kts 34°
2026-04-17 12:15 23.83499 114.29437 22317 ft 469 kts 34°
2026-04-17 12:15 23.86095 114.31608 22477 ft 471 kts 34°
2026-04-17 12:15 23.88714 114.33761 22706 ft 473 kts 33°
2026-04-17 12:15 23.91354 114.35904 22926 ft 475 kts 33°
2026-04-17 12:16 23.94020 114.38064 23144 ft 476 kts 33°
2026-04-17 12:16 23.96685 114.40228 23337 ft 479 kts 33°
2026-04-17 12:16 23.99330 114.42382 23508 ft 481 kts 33°
2026-04-17 12:16 24.02027 114.44583 23687 ft 483 kts 34°
2026-04-17 12:17 24.04720 114.46780 23884 ft 484 kts 34°
2026-04-17 12:17 24.07427 114.48997 24084 ft 485 kts 34°
2026-04-17 12:17 24.10132 114.51222 24241 ft 487 kts 34°
2026-04-17 12:17 24.12847 114.53460 24410 ft 488 kts 34°
2026-04-17 12:18 24.15565 114.55698 24616 ft 489 kts 34°
2026-04-17 12:18 24.18258 114.57912 24783 ft 492 kts 34°
2026-04-17 12:18 24.21002 114.60169 24960 ft 493 kts 34°
2026-04-17 12:18 24.23751 114.62433 25121 ft 495 kts 34°
2026-04-17 12:19 24.26506 114.64703 25294 ft 496 kts 34°
2026-04-17 12:19 24.29271 114.66985 25483 ft 497 kts 34°
2026-04-17 12:19 24.32032 114.69267 25640 ft 499 kts 34°
2026-04-17 12:19 24.34800 114.71574 25839 ft 500 kts 34°
2026-04-17 12:20 24.37589 114.73878 26036 ft 502 kts 34°
2026-04-17 12:20 24.40391 114.76184 26220 ft 503 kts 34°
2026-04-17 12:20 24.43195 114.78487 26329 ft 506 kts 33°
2026-04-17 12:20 24.46033 114.80823 26368 ft 511 kts 33°
2026-04-17 12:21 24.48840 114.83141 26569 ft 512 kts 33°
2026-04-17 12:21 24.51689 114.85499 26766 ft 513 kts 33°
2026-04-17 12:21 24.54553 114.87873 26933 ft 516 kts 34°
2026-04-17 12:21 24.57444 114.90213 27113 ft 516 kts 30°
2026-04-17 12:22 24.60536 114.92192 27318 ft 512 kts 21°
2026-04-17 12:22 24.63841 114.93628 27472 ft 507 kts 12°
2026-04-17 12:22 24.67242 114.94671 27648 ft 506 kts
2026-04-17 12:22 24.70627 114.95575 27835 ft 507 kts
2026-04-17 12:23 24.74079 114.96426 28031 ft 509 kts
2026-04-17 12:23 24.77549 114.97252 28207 ft 510 kts
2026-04-17 12:23 24.81032 114.98069 28396 ft 511 kts
2026-04-17 12:23 24.84518 114.98891 28563 ft 513 kts
2026-04-17 12:24 24.88019 114.99726 28726 ft 515 kts
2026-04-17 12:24 24.91529 115.00571 28891 ft 517 kts
2026-04-17 12:24 24.95055 115.01426 29069 ft 518 kts
2026-04-17 12:24 24.98579 115.02284 29185 ft 520 kts
2026-04-17 12:25 25.02122 115.03149 29332 ft 522 kts
2026-04-17 12:25 25.05640 115.04010 29488 ft 523 kts
2026-04-17 12:25 25.09190 115.04880 29694 ft 523 kts
2026-04-17 12:26 25.16341 115.06630 29903 ft 527 kts
2026-04-17 12:26 25.19934 115.07509 30030 ft 529 kts
2026-04-17 12:26 25.23537 115.08392 30157 ft 531 kts
2026-04-17 12:27 25.30819 115.09820 30320 ft 526 kts 357°
2026-04-17 12:27 25.34447 115.09779 30422 ft 518 kts 347°
2026-04-17 12:27 25.37961 115.09105 30554 ft 508 kts 338°
2026-04-17 12:27 25.41273 115.07846 30668 ft 501 kts 330°
2026-04-17 12:28 25.44482 115.06333 30781 ft 500 kts 329°
2026-04-17 12:28 25.47643 115.04734 30933 ft 500 kts 328°
2026-04-17 12:28 25.50749 115.03114 31046 ft 500 kts 327°
2026-04-17 12:29 25.57056 114.99800 31105 ft 503 kts 327°
2026-04-17 12:29 25.63407 114.96495 31106 ft 504 kts 327°
2026-04-17 12:30 25.69936 114.93528 31113 ft 515 kts 337°
2026-04-17 12:30 25.77170 114.92577 31112 ft 536 kts 357°
2026-04-17 12:30 25.80850 114.93149 31113 ft 546 kts
2026-04-17 12:31 25.84526 114.94511 31116 ft 556 kts 19°
2026-04-17 12:31 25.87880 114.96589 31117 ft 564 kts 31°
2026-04-17 12:31 25.90921 114.99391 31114 ft 570 kts 41°
2026-04-17 12:32 25.96454 115.05731 31104 ft 572 kts 45°
2026-04-17 12:32 26.01815 115.12260 31104 ft 571 kts 46°
2026-04-17 12:33 26.07196 115.18770 31107 ft 571 kts 45°
2026-04-17 12:33 26.12604 115.25239 31110 ft 571 kts 45°
2026-04-17 12:34 26.18006 115.31682 31106 ft 571 kts 45°
2026-04-17 12:34 26.23419 115.38147 31115 ft 569 kts 45°
2026-04-17 12:35 26.28806 115.44597 31121 ft 568 kts 45°
2026-04-17 12:35 26.34216 115.51073 31114 ft 573 kts 45°
2026-04-17 12:37 26.55842 115.77109 31120 ft 573 kts 45°
2026-04-17 12:38 26.61261 115.83654 31115 ft 574 kts 45°
2026-04-17 12:38 26.66681 115.90211 31122 ft 574 kts 45°
2026-04-17 12:39 26.72098 115.96776 31112 ft 573 kts 45°
2026-04-17 12:39 26.77493 116.03326 31125 ft 573 kts 45°
2026-04-17 12:40 26.81995 116.08796 31126 ft 574 kts 45°
2026-04-17 12:40 26.88286 116.16451 31123 ft 574 kts 45°
2026-04-17 12:41 26.93706 116.23043 31130 ft 574 kts 45°
2026-04-17 12:41 26.99153 116.29606 31121 ft 574 kts 45°
2026-04-17 12:42 27.04591 116.36161 31122 ft 574 kts 45°
2026-04-17 12:42 27.10024 116.42724 31123 ft 574 kts 45°
2026-04-17 12:43 27.15431 116.49267 31123 ft 574 kts 45°
2026-04-17 12:43 27.20863 116.55849 31120 ft 573 kts 44°
2026-04-17 12:44 27.26365 116.62329 31125 ft 572 kts 43°
2026-04-17 12:44 27.31915 116.68753 31122 ft 572 kts 43°
2026-04-17 12:45 27.37459 116.75187 31126 ft 572 kts 43°
2026-04-17 12:45 27.42988 116.81636 31114 ft 571 kts 43°
2026-04-17 12:46 27.48492 116.88078 31122 ft 570 kts 43°
2026-04-17 12:46 27.53965 116.94478 31127 ft 571 kts 43°
2026-04-17 12:47 27.59498 117.00883 31120 ft 570 kts 43°
2026-04-17 12:47 27.65041 117.07283 31127 ft 571 kts 43°
2026-04-17 12:48 27.70583 117.13697 31129 ft 570 kts 43°
2026-04-17 12:48 27.76120 117.20132 31088 ft 571 kts 44°
2026-04-17 12:49 27.81628 117.26593 31154 ft 570 kts 43°
2026-04-17 12:49 27.87176 117.33012 31126 ft 571 kts 43°
2026-04-17 12:50 27.92690 117.39419 31126 ft 571 kts 43°
2026-04-17 12:50 27.98219 117.45871 31127 ft 571 kts 44°
2026-04-17 12:51 28.03751 117.52348 31148 ft 571 kts 43°
2026-04-17 12:51 28.09297 117.58848 31122 ft 573 kts 44°
2026-04-17 12:52 28.14802 117.65312 31121 ft 574 kts 44°
2026-04-17 12:52 28.20345 117.71855 31120 ft 575 kts 44°
2026-04-17 12:53 28.25901 117.78385 31121 ft 574 kts 44°
2026-04-17 12:53 28.31440 117.84904 31120 ft 573 kts 44°
2026-04-17 12:54 28.36983 117.91445 31113 ft 573 kts 44°
2026-04-17 12:54 28.42469 117.97946 31117 ft 573 kts 44°
2026-04-17 12:55 28.47911 118.04586 31109 ft 573 kts 45°
2026-04-17 12:55 28.53320 118.11274 31111 ft 576 kts 45°
2026-04-17 12:56 28.58748 118.17987 31112 ft 577 kts 45°
2026-04-17 12:56 28.63270 118.23576 31109 ft 577 kts 45°
2026-04-17 12:57 28.68720 118.30315 31111 ft 576 kts 45°
2026-04-17 12:57 28.74151 118.37038 31089 ft 576 kts 45°
2026-04-17 12:58 28.79588 118.43781 31109 ft 579 kts 45°
2026-04-17 12:58 28.85787 118.51452 31112 ft 578 kts 45°
2026-04-17 12:59 28.90435 118.57252 31099 ft 576 kts 45°
2026-04-17 12:59 28.95839 118.64008 31103 ft 576 kts 45°
2026-04-17 13:00 29.01260 118.70776 31104 ft 579 kts 46°
2026-04-17 13:00 29.07454 118.78509 31095 ft 581 kts 47°
2026-04-17 13:01 29.12171 118.84414 31111 ft 580 kts 45°
2026-04-17 13:01 29.17572 118.91204 31113 ft 578 kts 45°
2026-04-17 13:02 29.22961 118.97983 31101 ft 577 kts 45°
2026-04-17 13:02 29.28398 119.04826 31104 ft 581 kts 45°
2026-04-17 13:03 29.33842 119.11685 31110 ft 581 kts 45°
2026-04-17 13:03 29.39256 119.18556 31099 ft 580 kts 45°
2026-04-17 13:04 29.44666 119.25430 31100 ft 580 kts 45°
2026-04-17 13:04 29.50084 119.32319 31109 ft 582 kts 45°
2026-04-17 13:05 29.55509 119.39219 31104 ft 582 kts 45°
2026-04-17 13:05 29.60941 119.46134 31111 ft 583 kts 45°
2026-04-17 13:06 29.66326 119.53018 31107 ft 580 kts 46°
2026-04-17 13:06 29.71688 119.59945 31114 ft 580 kts 45°
2026-04-17 13:07 29.77449 119.66378 31115 ft 572 kts 31°
2026-04-17 13:07 29.84131 119.71306 31126 ft 569 kts 26°
2026-04-17 13:08 29.90899 119.75877 31119 ft 565 kts 25°
2026-04-17 13:08 29.97725 119.80407 31120 ft 566 kts 25°
2026-04-17 13:09 30.04545 119.84966 31130 ft 566 kts 25°
2026-04-17 13:09 30.11354 119.89551 31111 ft 565 kts 25°
2026-04-17 13:10 30.18101 119.94107 31098 ft 565 kts 25°
2026-04-17 13:10 30.24900 119.98719 31114 ft 566 kts 25°
2026-04-17 13:11 30.31696 120.03334 31098 ft 566 kts 25°
2026-04-17 13:11 30.38495 120.07955 31113 ft 566 kts 25°
2026-04-17 13:12 30.45285 120.12576 31105 ft 566 kts 25°
2026-04-17 13:12 30.55429 120.19496 31105 ft 566 kts 25°
2026-04-17 13:13 30.62215 120.24138 31110 ft 566 kts 25°
2026-04-17 13:13 30.68992 120.28780 31129 ft 565 kts 25°
2026-04-17 13:14 30.75747 120.33417 31108 ft 562 kts 25°
2026-04-17 13:14 30.82476 120.38043 31109 ft 562 kts 26°
2026-04-17 13:15 30.85644 120.40650 31094 ft 569 kts 37°
2026-04-17 13:15 30.88421 120.43954 31130 ft 575 kts 50°
2026-04-17 13:15 30.90560 120.47888 31115 ft 576 kts 64°
2026-04-17 13:15 30.92020 120.52232 31114 ft 576 kts 72°
2026-04-17 13:16 30.94348 120.61185 31113 ft 577 kts 76°
2026-04-17 13:16 30.96452 120.70215 31112 ft 577 kts 76°
2026-04-17 13:17 30.98590 120.79244 31115 ft 577 kts 75°
2026-04-17 13:17 31.00773 120.88191 31138 ft 576 kts 74°
2026-04-17 13:18 31.02969 120.97117 31103 ft 570 kts 75°
2026-04-17 13:18 31.05159 121.06050 31127 ft 574 kts 75°
2026-04-17 13:19 31.07350 121.15024 31137 ft 575 kts 75°
2026-04-17 13:19 31.09624 121.23912 31143 ft 575 kts 73°
2026-04-17 13:20 31.11548 121.32955 31146 ft 574 kts 86°
2026-04-17 13:20 31.11675 121.37595 31155 ft 568 kts 97°
2026-04-17 13:20 31.11307 121.42159 31148 ft 564 kts 100°
2026-04-17 13:21 31.10194 121.51189 31140 ft 562 kts 103°
2026-04-17 13:21 31.08920 121.60198 31142 ft 563 kts 103°
2026-04-17 13:22 31.07657 121.69232 31146 ft 563 kts 103°
2026-04-17 13:22 31.06425 121.78252 31148 ft 563 kts 103°
2026-04-17 13:23 31.05197 121.87292 31145 ft 564 kts 103°
2026-04-17 13:23 31.03971 121.96276 31144 ft 565 kts 103°
2026-04-17 13:24 31.02730 122.05314 31163 ft 565 kts 103°
2026-04-17 13:24 31.01481 122.14353 31159 ft 564 kts 103°
2026-04-17 13:25 31.00265 122.23402 31153 ft 567 kts 99°
2026-04-17 13:25 30.99974 122.32619 31153 ft 570 kts 94°
2026-04-17 13:26 30.99950 122.41879 31154 ft 572 kts 93°
2026-04-17 13:26 30.99983 122.51166 31149 ft 573 kts 93°
2026-04-17 13:27 31.00004 122.60455 31167 ft 573 kts 93°
2026-04-17 13:27 31.00007 122.69685 31153 ft 572 kts 93°
2026-04-17 13:28 31.00012 122.78960 31153 ft 572 kts 93°
2026-04-17 13:28 31.00014 122.88240 31151 ft 572 kts 93°
2026-04-17 13:29 31.00661 122.97507 31151 ft 578 kts 78°
2026-04-17 13:29 31.01900 123.01964 31150 ft 579 kts 66°
2026-04-17 13:29 31.03804 123.06092 31152 ft 577 kts 56°
2026-04-17 13:30 31.08291 123.13795 31151 ft 577 kts 52°
2026-04-17 13:30 31.13017 123.21362 31140 ft 576 kts 51°
2026-04-17 13:31 31.17737 123.28944 31159 ft 577 kts 51°
2026-04-17 13:31 31.22416 123.36574 31140 ft 577 kts 52°
2026-04-17 13:32 31.27068 123.44221 31152 ft 575 kts 52°
2026-04-17 13:32 31.31683 123.51828 31143 ft 573 kts 52°
2026-04-17 13:33 31.36304 123.59422 31155 ft 572 kts 52°
2026-04-17 13:33 31.40945 123.67008 31176 ft 572 kts 52°
2026-04-17 13:34 31.45519 123.74497 31147 ft 567 kts 52°
2026-04-17 13:34 31.50100 123.82017 31143 ft 567 kts 52°
2026-04-17 13:35 31.54668 123.89531 31149 ft 567 kts 52°
2026-04-17 13:35 31.59201 123.97105 31125 ft 568 kts 56°
2026-04-17 13:36 31.61000 124.01255 31140 ft 574 kts 68°
2026-04-17 13:36 31.62277 124.05699 31140 ft 576 kts 73°
2026-04-17 13:36 31.64437 124.14782 31144 ft 578 kts 76°
2026-04-17 13:37 31.66412 124.23928 31129 ft 578 kts 76°
2026-04-17 13:37 31.68394 124.33090 31140 ft 578 kts 76°
2026-04-17 13:38 31.70394 124.42199 31141 ft 574 kts 76°
2026-04-17 13:38 31.72395 124.51274 31126 ft 575 kts 76°
2026-04-17 13:39 31.74388 124.60338 31128 ft 578 kts 76°
2026-04-17 13:39 31.76389 124.69482 31127 ft 578 kts 76°
2026-04-17 13:40 31.78380 124.78620 31132 ft 576 kts 76°
2026-04-17 13:40 31.80362 124.87753 31125 ft 576 kts 76°
2026-04-17 13:41 31.82205 124.96939 31132 ft 575 kts 83°
2026-04-17 13:41 31.82406 125.01611 31122 ft 571 kts 96°
2026-04-17 13:41 31.82152 125.04685 31119 ft 569 kts 101°
2026-04-17 13:42 31.80875 125.13869 31120 ft 569 kts 105°
2026-04-17 13:42 31.79075 125.24460 31125 ft 569 kts 105°
2026-04-17 13:43 31.77520 125.33567 31118 ft 568 kts 105°
2026-04-17 13:43 31.76245 125.41187 31118 ft 567 kts 105°
2026-04-17 13:44 31.74732 125.50295 31116 ft 568 kts 105°
2026-04-17 13:44 31.73216 125.59401 31113 ft 568 kts 105°
2026-04-17 13:45 31.72833 125.68634 31101 ft 575 kts 82°
2026-04-17 13:45 31.74483 125.77843 31103 ft 576 kts 76°
2026-04-17 13:46 31.76530 125.86965 31106 ft 577 kts 75°
2026-04-17 13:46 31.78620 125.96083 31106 ft 577 kts 75°
2026-04-17 13:47 31.80649 126.05201 31104 ft 576 kts 75°
2026-04-17 13:47 31.82623 126.14255 31100 ft 575 kts 75°
2026-04-17 13:48 31.84595 126.23364 31104 ft 574 kts 75°
2026-04-17 13:48 31.86566 126.32486 31105 ft 575 kts 76°
2026-04-17 13:49 31.88538 126.41634 31104 ft 576 kts 76°
2026-04-17 13:49 31.90503 126.50759 31081 ft 574 kts 75°
2026-04-17 13:50 31.92508 126.59862 31089 ft 574 kts 75°
2026-04-17 13:50 31.94510 126.68904 31102 ft 574 kts 75°
2026-04-17 13:51 31.96516 126.78012 31098 ft 575 kts 75°
2026-04-17 13:51 31.98510 126.87127 31094 ft 575 kts 75°
2026-04-17 13:52 32.00496 126.96244 31094 ft 573 kts 75°
2026-04-17 13:52 32.02475 127.05363 31091 ft 573 kts 75°
2026-04-17 13:53 32.04857 127.14311 31097 ft 572 kts 66°
2026-04-17 13:53 32.07952 127.22886 31095 ft 571 kts 64°
2026-04-17 13:54 32.12818 127.35718 31078 ft 571 kts 64°
2026-04-17 13:55 32.17665 127.48572 31075 ft 571 kts 64°
2026-04-17 13:56 32.24041 127.65655 31102 ft 570 kts 64°
2026-04-17 13:56 32.27235 127.74245 31098 ft 570 kts 64°
2026-04-17 13:57 32.30419 127.82826 31102 ft 570 kts 65°
2026-04-17 13:58 32.35183 127.95709 31189 ft 570 kts 64°
2026-04-17 13:58 32.38367 128.04344 31395 ft 574 kts 64°
2026-04-17 13:58 32.39963 128.08679 31541 ft 575 kts 64°
2026-04-17 13:59 32.43156 128.17375 31832 ft 577 kts 64°
2026-04-17 13:59 32.44755 128.21737 31959 ft 578 kts 64°
2026-04-17 14:00 32.47940 128.30443 32220 ft 579 kts 64°
2026-04-17 14:00 32.49540 128.34825 32374 ft 580 kts 64°
2026-04-17 14:00 32.51139 128.39211 32580 ft 579 kts 64°
2026-04-17 14:00 32.52735 128.43595 32784 ft 579 kts 65°
2026-04-17 14:01 32.54330 128.47982 32946 ft 579 kts 65°
2026-04-17 14:01 32.55927 128.52381 33104 ft 579 kts 65°
2026-04-17 14:01 32.57522 128.56778 33264 ft 580 kts 65°
2026-04-17 14:01 32.59116 128.61178 33426 ft 580 kts 65°
2026-04-17 14:02 32.60704 128.65568 33557 ft 580 kts 64°
2026-04-17 14:02 32.62295 128.69969 33751 ft 580 kts 64°
2026-04-17 14:02 32.63881 128.74363 33919 ft 579 kts 64°
2026-04-17 14:02 32.65468 128.78758 34068 ft 579 kts 64°
2026-04-17 14:03 32.66847 128.83211 34108 ft 583 kts 73°
2026-04-17 14:03 32.67938 128.87851 34221 ft 584 kts 74°
2026-04-17 14:03 32.68954 128.92515 34352 ft 583 kts 75°
2026-04-17 14:03 32.69919 128.97178 34539 ft 581 kts 76°
2026-04-17 14:04 32.70863 129.01853 34645 ft 582 kts 76°
2026-04-17 14:04 32.72744 129.11232 34772 ft 585 kts 76°
2026-04-17 14:04 32.73689 129.15926 34927 ft 584 kts 76°
2026-04-17 14:05 32.74638 129.20620 35021 ft 585 kts 76°
2026-04-17 14:05 32.76538 129.30006 35030 ft 590 kts 76°
2026-04-17 14:06 32.78454 129.39492 35036 ft 590 kts 76°
2026-04-17 14:06 32.80360 129.48967 35026 ft 590 kts 76°
2026-04-17 14:07 32.82263 129.58479 35010 ft 590 kts 76°
2026-04-17 14:07 32.84155 129.67974 35024 ft 590 kts 76°
2026-04-17 14:08 32.85743 129.77497 35045 ft 590 kts 81°
2026-04-17 14:08 32.87078 129.87129 35017 ft 591 kts 81°
2026-04-17 14:09 32.88407 129.96783 35029 ft 591 kts 81°
2026-04-17 14:09 32.89776 130.06449 35019 ft 591 kts 80°
2026-04-17 14:10 32.91148 130.16033 35054 ft 591 kts 81°
2026-04-17 14:10 32.92527 130.25702 35010 ft 593 kts 80°
2026-04-17 14:11 32.93899 130.35399 35032 ft 593 kts 81°
2026-04-17 14:11 32.95261 130.45087 35031 ft 593 kts 81°
2026-04-17 14:12 32.96613 130.54767 35045 ft 593 kts 81°
2026-04-17 14:12 32.97951 130.64399 35022 ft 594 kts 81°
2026-04-17 14:13 32.99959 130.78961 35034 ft 594 kts 81°
2026-04-17 14:13 33.01289 130.88668 35035 ft 594 kts 81°
2026-04-17 14:14 33.02611 130.98387 35034 ft 594 kts 81°
2026-04-17 14:14 33.03927 131.08119 35045 ft 595 kts 81°
2026-04-17 14:15 33.05229 131.17810 35076 ft 595 kts 81°
2026-04-17 14:15 33.06530 131.27549 35073 ft 594 kts 81°
2026-04-17 14:16 33.07822 131.37280 35068 ft 594 kts 81°
2026-04-17 14:16 33.09107 131.47020 35093 ft 594 kts 81°
2026-04-17 14:17 33.10383 131.56753 35088 ft 594 kts 81°
2026-04-17 14:17 33.11651 131.66499 35099 ft 594 kts 81°
2026-04-17 14:18 33.12911 131.76236 35087 ft 594 kts 82°
2026-04-17 14:18 33.14155 131.85919 35084 ft 593 kts 81°
2026-04-17 14:19 33.15398 131.95640 35092 ft 592 kts 81°
2026-04-17 14:19 33.16630 132.05348 35123 ft 591 kts 81°
2026-04-17 14:20 33.17855 132.15052 35097 ft 592 kts 82°
2026-04-17 14:20 33.19076 132.24788 35098 ft 592 kts 82°
2026-04-17 14:21 33.20290 132.34529 35108 ft 591 kts 82°
2026-04-17 14:21 33.21493 132.44248 35118 ft 591 kts 82°
2026-04-17 14:22 33.22691 132.53987 35119 ft 593 kts 82°
2026-04-17 14:22 33.23874 132.63668 35109 ft 593 kts 82°
2026-04-17 14:23 33.25062 132.73399 35123 ft 592 kts 82°
2026-04-17 14:23 33.26238 132.83144 35132 ft 593 kts 82°
2026-04-17 14:24 33.27408 132.92901 35124 ft 593 kts 82°
2026-04-17 14:24 33.28564 133.02689 35140 ft 594 kts 82°
2026-04-17 14:25 33.29718 133.12480 35145 ft 594 kts 82°
2026-04-17 14:25 33.30865 133.22277 35147 ft 596 kts 82°
2026-04-17 14:26 33.31998 133.32021 35152 ft 595 kts 82°
2026-04-17 14:26 33.33132 133.41822 35142 ft 594 kts 82°
2026-04-17 14:27 33.34255 133.51611 35141 ft 594 kts 82°
2026-04-17 14:27 33.35374 133.61434 35136 ft 595 kts 82°
2026-04-17 14:28 33.36298 133.69596 35135 ft 595 kts 82°
2026-04-17 14:28 33.37400 133.79402 35142 ft 594 kts 82°
2026-04-17 14:29 33.38495 133.89209 35141 ft 595 kts 82°
2026-04-17 14:29 33.39582 133.99020 35149 ft 595 kts 82°
2026-04-17 14:30 33.40661 134.08834 35156 ft 594 kts 82°
2026-04-17 14:30 33.41728 134.18641 35185 ft 594 kts 83°
2026-04-17 14:31 33.42793 134.28460 35161 ft 593 kts 83°
2026-04-17 14:31 33.43846 134.38238 35169 ft 592 kts 83°
2026-04-17 14:32 33.44885 134.47967 35161 ft 592 kts 83°
2026-04-17 14:32 33.45921 134.57749 35164 ft 593 kts 83°
2026-04-17 14:33 33.46950 134.67547 35162 ft 593 kts 83°
2026-04-17 14:33 33.47971 134.77339 35165 ft 592 kts 83°
2026-04-17 14:34 33.48984 134.87127 35186 ft 592 kts 83°
2026-04-17 14:34 33.49990 134.96925 35159 ft 594 kts 83°
2026-04-17 14:35 33.50988 135.06710 35154 ft 594 kts 83°
2026-04-17 14:35 33.51985 135.16542 35156 ft 594 kts 83°
2026-04-17 14:36 33.52972 135.26366 35153 ft 593 kts 83°
2026-04-17 14:36 33.53950 135.36175 35155 ft 592 kts 83°
2026-04-17 14:37 33.54922 135.46000 35160 ft 593 kts 83°
2026-04-17 14:37 33.55885 135.55822 35161 ft 593 kts 83°
2026-04-17 14:38 33.56836 135.65603 35161 ft 593 kts 83°
2026-04-17 14:38 33.57786 135.75446 35157 ft 594 kts 83°
2026-04-17 14:39 33.58723 135.85283 35178 ft 593 kts 83°
2026-04-17 14:39 33.59658 135.95125 35170 ft 593 kts 83°
2026-04-17 14:40 33.60577 136.04877 35181 ft 592 kts 83°
2026-04-17 14:40 33.61493 136.14705 35177 ft 592 kts 83°
2026-04-17 14:41 33.62403 136.24547 35176 ft 593 kts 84°
2026-04-17 14:41 33.63303 136.34383 35170 ft 593 kts 83°
2026-04-17 14:42 33.64196 136.44216 35183 ft 591 kts 84°
2026-04-17 14:42 33.65078 136.54016 35180 ft 591 kts 84°
2026-04-17 14:43 33.65955 136.63851 35181 ft 592 kts 84°
2026-04-17 14:43 33.66817 136.73612 35179 ft 592 kts 84°
2026-04-17 14:44 33.67679 136.83454 35175 ft 593 kts 84°
2026-04-17 14:44 33.68533 136.93297 35174 ft 592 kts 84°
2026-04-17 14:45 33.69377 137.03124 35181 ft 591 kts 84°
2026-04-17 14:45 33.70187 137.12982 35182 ft 592 kts 86°
2026-04-17 14:46 33.70585 137.22874 35178 ft 592 kts 89°
2026-04-17 14:46 33.70795 137.32762 35176 ft 592 kts 89°
2026-04-17 14:47 33.71025 137.42601 35171 ft 592 kts 89°
2026-04-17 14:47 33.71295 137.52469 35179 ft 591 kts 89°
2026-04-17 14:48 33.71573 137.62328 35179 ft 591 kts 89°
2026-04-17 14:48 33.71844 137.72213 35184 ft 591 kts 89°
2026-04-17 14:49 33.72104 137.82078 35187 ft 591 kts 89°
2026-04-17 14:49 33.72354 137.91962 35177 ft 591 kts 89°
2026-04-17 14:50 33.72595 138.01772 35191 ft 591 kts 89°
2026-04-17 14:50 33.72830 138.11647 35188 ft 591 kts 89°
2026-04-17 14:51 33.73056 138.21515 35188 ft 591 kts 89°
2026-04-17 14:51 33.73275 138.31386 35189 ft 590 kts 89°
2026-04-17 14:52 33.73487 138.41259 35188 ft 590 kts 89°
2026-04-17 14:52 33.74689 138.50934 35194 ft 584 kts 68°
2026-04-17 14:53 33.78193 138.59581 35198 ft 577 kts 55°
2026-04-17 14:53 33.82331 138.67852 35197 ft 577 kts 53°
2026-04-17 14:54 33.86561 138.76050 35194 ft 576 kts 53°
2026-04-17 14:54 33.90756 138.84278 35197 ft 577 kts 54°
2026-04-17 14:55 33.94920 138.92548 35198 ft 577 kts 54°
2026-04-17 14:55 33.99038 139.00774 35198 ft 577 kts 54°
2026-04-17 14:56 34.03179 139.09062 35200 ft 578 kts 54°
2026-04-17 14:56 34.07335 139.17391 35196 ft 579 kts 54°
2026-04-17 14:57 34.11486 139.25730 35193 ft 579 kts 54°
2026-04-17 14:57 34.15637 139.34088 35201 ft 579 kts 54°
2026-04-17 14:58 34.19780 139.42447 35201 ft 579 kts 54°
2026-04-17 14:58 34.23888 139.50755 35202 ft 579 kts 54°
2026-04-17 14:59 34.28018 139.59125 35202 ft 580 kts 54°
2026-04-17 14:59 34.32144 139.67509 35199 ft 580 kts 54°
2026-04-17 15:00 34.36265 139.75905 35216 ft 580 kts 54°
2026-04-17 15:00 34.40390 139.84324 35212 ft 581 kts 54°
2026-04-17 15:01 34.44505 139.92746 35187 ft 581 kts 54°
2026-04-17 15:01 34.48620 140.01189 35194 ft 581 kts 54°
2026-04-17 15:02 34.52728 140.09636 35194 ft 581 kts 54°
2026-04-17 15:02 34.56811 140.18052 35197 ft 581 kts 54°
2026-04-17 15:03 34.60907 140.26516 35200 ft 581 kts 54°
2026-04-17 15:03 34.65008 140.35010 35200 ft 581 kts 54°
2026-04-17 15:04 34.69094 140.43494 35212 ft 582 kts 54°
2026-04-17 15:04 34.73113 140.52048 35203 ft 583 kts 56°
2026-04-17 15:05 34.77035 140.60617 35206 ft 584 kts 56°
2026-04-17 15:05 34.80977 140.69254 35208 ft 584 kts 56°
2026-04-17 15:06 34.84932 140.77909 35205 ft 585 kts 56°
2026-04-17 15:06 34.88892 140.86580 35205 ft 585 kts 56°
2026-04-17 15:07 34.92840 140.95243 35205 ft 585 kts 56°
2026-04-17 15:07 34.96791 141.03934 35205 ft 586 kts 56°
2026-04-17 15:08 35.00708 141.12578 35212 ft 586 kts 56°
2026-04-17 15:08 35.04653 141.21303 35208 ft 586 kts 56°
2026-04-17 15:09 35.08584 141.30019 35223 ft 586 kts 55°
2026-04-17 15:09 35.12518 141.38765 35215 ft 587 kts 55°
2026-04-17 15:10 35.16441 141.47511 35212 ft 587 kts 55°
2026-04-17 15:11 35.22292 141.60595 35207 ft 587 kts 56°
2026-04-17 15:11 35.26202 141.69366 35210 ft 587 kts 56°
2026-04-17 15:12 35.30113 141.78162 35207 ft 587 kts 56°
2026-04-17 15:12 35.34011 141.86951 35212 ft 586 kts 56°
2026-04-17 15:13 35.37893 141.95728 35216 ft 586 kts 56°
2026-04-17 15:13 35.41772 142.04520 35213 ft 586 kts 56°
2026-04-17 15:14 35.45620 142.13265 35212 ft 585 kts 56°
2026-04-17 15:14 35.49488 142.22078 35213 ft 585 kts 56°
2026-04-17 15:15 35.52688 142.29386 35226 ft 585 kts 56°
2026-04-17 15:15 35.56528 142.38180 35214 ft 583 kts 56°
2026-04-17 15:16 35.60355 142.46963 35216 ft 583 kts 56°
2026-04-17 15:16 35.64184 142.55774 35216 ft 583 kts 56°
2026-04-17 15:17 35.67993 142.64565 35213 ft 582 kts 56°
2026-04-17 15:17 35.71770 142.73302 35216 ft 582 kts 57°
2026-04-17 15:18 35.75568 142.82112 35215 ft 581 kts 57°
2026-04-17 15:18 35.79356 142.90924 35219 ft 581 kts 57°
2026-04-17 15:19 35.83133 142.99732 35219 ft 581 kts 57°
2026-04-17 15:19 35.86903 143.08544 35216 ft 580 kts 57°
2026-04-17 15:20 35.90660 143.17355 35224 ft 580 kts 57°
2026-04-17 15:20 35.92331 143.21914 35223 ft 586 kts 68°
2026-04-17 15:20 35.93311 143.26816 35233 ft 590 kts 77°
2026-04-17 15:21 35.94569 143.36789 35220 ft 591 kts 81°
2026-04-17 15:21 35.95553 143.46872 35228 ft 592 kts 82°
2026-04-17 15:22 35.96517 143.56960 35226 ft 591 kts 82°
2026-04-17 15:22 35.97514 143.67021 35224 ft 590 kts 82°
2026-04-17 15:23 35.98525 143.77072 35238 ft 590 kts 82°
2026-04-17 15:23 35.99529 143.87119 35226 ft 589 kts 82°
2026-04-17 15:24 36.00522 143.97161 35228 ft 589 kts 82°
2026-04-17 15:24 36.02151 144.06961 35228 ft 582 kts 65°
2026-04-17 15:24 36.03898 144.11421 35225 ft 572 kts 52°
2026-04-17 15:25 36.06243 144.15326 35237 ft 563 kts 43°
2026-04-17 15:25 36.11483 144.22483 35230 ft 560 kts 39°
2026-04-17 15:26 36.16899 144.29427 35254 ft 560 kts 39°
2026-04-17 15:26 36.22306 144.36390 35237 ft 561 kts 39°
2026-04-17 15:27 36.27678 144.43401 35234 ft 561 kts 39°
2026-04-17 15:27 36.33006 144.50407 35253 ft 561 kts 40°
2026-04-17 15:28 36.38358 144.57465 35231 ft 561 kts 40°
2026-04-17 15:28 36.43707 144.64530 35232 ft 561 kts 40°
2026-04-17 15:29 36.49053 144.71603 35233 ft 561 kts 40°
2026-04-17 15:29 36.54392 144.78682 35239 ft 561 kts 40°
2026-04-17 15:30 36.59700 144.85735 35230 ft 560 kts 40°
2026-04-17 15:30 36.65028 144.92830 35233 ft 561 kts 40°
2026-04-17 15:31 36.70356 144.99941 35232 ft 561 kts 40°
2026-04-17 15:31 36.75676 145.07057 35235 ft 561 kts 40°
2026-04-17 15:32 36.80988 145.14177 35235 ft 560 kts 40°
2026-04-17 15:32 36.86266 145.21267 35239 ft 561 kts 41°
2026-04-17 15:33 36.91571 145.28409 35234 ft 560 kts 41°
2026-04-17 15:33 36.96872 145.35561 35235 ft 560 kts 41°
2026-04-17 15:34 37.02169 145.42722 35237 ft 560 kts 41°
2026-04-17 15:34 37.07463 145.49897 35235 ft 561 kts 41°
2026-04-17 15:35 37.12754 145.57084 35240 ft 561 kts 41°
2026-04-17 15:35 37.17938 145.64416 35236 ft 567 kts 50°
2026-04-17 15:35 37.19912 145.68649 35237 ft 574 kts 63°
2026-04-17 15:36 37.21325 145.73342 35241 ft 577 kts 69°
2026-04-17 15:36 37.23680 145.83006 35244 ft 579 kts 72°
2026-04-17 15:37 37.25823 145.92764 35238 ft 579 kts 73°
2026-04-17 15:37 37.27979 146.02520 35238 ft 579 kts 72°
2026-04-17 15:38 37.30167 146.12244 35240 ft 577 kts 72°
2026-04-17 15:38 37.32358 146.21938 35243 ft 576 kts 72°
2026-04-17 15:39 37.34529 146.31574 35248 ft 576 kts 72°
2026-04-17 15:39 37.36704 146.41284 35243 ft 576 kts 73°
2026-04-17 15:40 37.38863 146.50974 35243 ft 576 kts 73°
2026-04-17 15:40 37.41019 146.60691 35243 ft 576 kts 73°
2026-04-17 15:41 37.43164 146.70399 35246 ft 576 kts 73°
2026-04-17 15:41 37.45302 146.80114 35244 ft 576 kts 73°
2026-04-17 15:42 37.47434 146.89846 35250 ft 576 kts 73°
2026-04-17 15:42 37.49545 146.99524 35249 ft 576 kts 73°
2026-04-17 15:43 37.51661 147.09264 35248 ft 576 kts 73°
2026-04-17 15:43 37.53770 147.19018 35249 ft 577 kts 73°
2026-04-17 15:44 37.55870 147.28771 35249 ft 577 kts 73°
2026-04-17 15:44 37.57955 147.38495 35262 ft 577 kts 73°
2026-04-17 15:45 37.60046 147.48294 35229 ft 578 kts 73°
2026-04-17 15:45 37.62129 147.58094 35246 ft 579 kts 73°
2026-04-17 15:46 37.64207 147.67918 35248 ft 579 kts 73°
2026-04-17 15:46 37.66272 147.77725 35249 ft 577 kts 73°
2026-04-17 15:47 37.68312 147.87457 35253 ft 577 kts 73°
2026-04-17 15:47 37.70358 147.97259 35254 ft 576 kts 73°
2026-04-17 15:48 37.72388 148.07035 35258 ft 573 kts 73°
2026-04-17 15:48 37.74402 148.16774 35262 ft 572 kts 73°
2026-04-17 15:49 37.76408 148.26511 35264 ft 572 kts 73°
2026-04-17 15:49 37.78404 148.36248 35262 ft 572 kts 73°
2026-04-17 15:50 37.80377 148.45922 35263 ft 572 kts 73°
2026-04-17 15:50 37.82358 148.55675 35261 ft 571 kts 73°
2026-04-17 15:51 37.84323 148.65397 35264 ft 570 kts 73°
2026-04-17 15:51 37.86280 148.75122 35266 ft 570 kts 73°
2026-04-17 15:52 37.88230 148.84853 35263 ft 570 kts 73°
2026-04-17 15:52 37.90170 148.94586 35261 ft 570 kts 74°
2026-04-17 15:53 37.92104 149.04330 35275 ft 570 kts 74°
2026-04-17 15:53 37.94028 149.14069 35264 ft 570 kts 74°
2026-04-17 15:54 37.95945 149.23819 35263 ft 570 kts 74°
2026-04-17 15:54 37.97842 149.33511 35265 ft 570 kts 74°
2026-04-17 15:55 37.99744 149.43280 35262 ft 570 kts 74°
2026-04-17 15:55 38.01640 149.53062 35263 ft 570 kts 75°
2026-04-17 15:56 38.03526 149.62838 35274 ft 571 kts 75°
2026-04-17 15:56 38.05410 149.72653 35263 ft 572 kts 75°
2026-04-17 15:57 38.07273 149.82404 35263 ft 572 kts 75°
2026-04-17 15:57 38.09139 149.92218 35274 ft 572 kts 75°
2026-04-17 15:58 38.11598 150.01773 35268 ft 567 kts 60°
2026-04-17 15:58 38.15345 150.10593 35266 ft 566 kts 56°
2026-04-17 15:59 38.19308 150.19261 35312 ft 566 kts 55°
2026-04-17 15:59 38.23285 150.27909 35275 ft 567 kts 55°
2026-04-17 16:00 38.27238 150.36605 35277 ft 567 kts 55°
2026-04-17 16:00 38.31134 150.45244 35272 ft 567 kts 56°
2026-04-17 16:01 38.35049 150.53963 35275 ft 566 kts 55°
2026-04-17 16:01 38.38956 150.62683 35274 ft 566 kts 55°
2026-04-17 16:02 38.42864 150.71420 35276 ft 566 kts 55°
2026-04-17 16:02 38.46106 150.78690 35286 ft 566 kts 55°
2026-04-17 16:03 38.50005 150.87452 35284 ft 567 kts 55°
2026-04-17 16:03 38.53896 150.96224 35278 ft 567 kts 55°
2026-04-17 16:04 38.57780 151.05002 35287 ft 567 kts 55°
2026-04-17 16:04 38.61651 151.13780 35274 ft 565 kts 55°
2026-04-17 16:05 38.65483 151.22491 35280 ft 565 kts 55°
2026-04-17 16:05 38.69331 151.31258 35276 ft 565 kts 55°
2026-04-17 16:06 38.73171 151.40034 35280 ft 564 kts 54°
2026-04-17 16:06 38.77000 151.48810 35276 ft 564 kts 54°
2026-04-17 16:07 38.80830 151.57611 35276 ft 565 kts 55°
2026-04-17 16:07 38.84651 151.66417 35289 ft 566 kts 55°
2026-04-17 16:08 38.88492 151.75287 35278 ft 569 kts 55°
2026-04-17 16:08 38.92330 151.84184 35272 ft 570 kts 55°
2026-04-17 16:09 38.96141 151.93046 35286 ft 570 kts 55°
2026-04-17 16:09 38.99987 152.02006 35274 ft 574 kts 55°
2026-04-17 16:10 39.03847 152.11029 35276 ft 576 kts 55°
2026-04-17 16:10 39.07701 152.20067 35276 ft 576 kts 55°
2026-04-17 16:11 39.11525 152.29061 35270 ft 576 kts 56°
2026-04-17 16:11 39.15362 152.38112 35271 ft 576 kts 56°
2026-04-17 16:12 39.19201 152.47189 35273 ft 576 kts 56°
2026-04-17 16:12 39.23026 152.56265 35277 ft 576 kts 55°
2026-04-17 16:13 39.26844 152.65347 35268 ft 575 kts 55°
2026-04-17 16:13 39.30647 152.74419 35268 ft 574 kts 55°
2026-04-17 16:14 39.36310 152.87984 35265 ft 572 kts 55°
2026-04-17 16:14 39.40063 152.97011 35265 ft 568 kts 55°
2026-04-17 16:15 39.43797 153.06009 35265 ft 568 kts 55°
2026-04-17 16:15 39.47533 153.15035 35270 ft 567 kts 54°
2026-04-17 16:16 39.51236 153.24017 35265 ft 564 kts 54°
2026-04-17 16:16 39.54929 153.33000 35265 ft 564 kts 54°
2026-04-17 16:17 39.58586 153.41915 35263 ft 564 kts 55°
2026-04-17 16:17 39.62255 153.50892 35260 ft 561 kts 54°
2026-04-17 16:18 39.65900 153.59837 35258 ft 560 kts 54°
2026-04-17 16:18 39.69539 153.68788 35257 ft 560 kts 54°
2026-04-17 16:19 39.73168 153.77743 35249 ft 559 kts 54°
2026-04-17 16:19 39.76776 153.86679 35259 ft 557 kts 54°
2026-04-17 16:20 39.80374 153.95609 35256 ft 557 kts 54°
2026-04-17 16:20 39.83965 154.04544 35251 ft 557 kts 54°
2026-04-17 16:21 39.87525 154.13437 35252 ft 555 kts 54°
2026-04-17 16:21 39.91082 154.22347 35251 ft 554 kts 54°
2026-04-17 16:22 39.94643 154.31289 35249 ft 554 kts 54°
2026-04-17 16:22 39.98189 154.40222 35258 ft 554 kts 54°
2026-04-17 16:23 40.01694 154.49083 35249 ft 553 kts 54°
2026-04-17 16:23 40.05214 154.58002 35248 ft 553 kts 54°
2026-04-17 16:24 40.08730 154.66938 35248 ft 553 kts 54°
2026-04-17 16:24 40.12236 154.75877 35242 ft 552 kts 54°
2026-04-17 16:25 40.15725 154.84800 35242 ft 551 kts 54°
2026-04-17 16:25 40.19211 154.93739 35240 ft 552 kts 55°
2026-04-17 16:26 40.22693 155.02695 35245 ft 553 kts 55°
2026-04-17 16:26 40.26179 155.11685 35249 ft 554 kts 55°
2026-04-17 16:27 40.29667 155.20711 35240 ft 555 kts 55°
2026-04-17 16:27 40.33123 155.29686 35234 ft 556 kts 55°
2026-04-17 16:28 40.36600 155.38741 35235 ft 556 kts 55°
2026-04-17 16:28 40.40072 155.47810 35235 ft 556 kts 55°
2026-04-17 16:29 40.43543 155.56903 35235 ft 556 kts 55°
2026-04-17 16:29 40.47003 155.66001 35232 ft 556 kts 55°
2026-04-17 16:30 40.50430 155.75036 35227 ft 555 kts 55°
2026-04-17 16:30 40.53872 155.84136 35227 ft 555 kts 55°
2026-04-17 16:31 40.57305 155.93240 35255 ft 556 kts 56°
2026-04-17 16:31 40.60733 156.02363 35225 ft 556 kts 55°
2026-04-17 16:32 40.64157 156.11501 35222 ft 556 kts 56°
2026-04-17 16:32 40.67548 156.20581 35223 ft 556 kts 56°
2026-04-17 16:33 40.70952 156.29726 35226 ft 556 kts 56°
2026-04-17 16:33 40.74351 156.38885 35210 ft 556 kts 56°
2026-04-17 16:34 40.77742 156.48050 35214 ft 556 kts 56°
2026-04-17 16:34 40.81128 156.57229 35235 ft 556 kts 56°
2026-04-17 16:35 40.84503 156.66415 35221 ft 554 kts 56°
2026-04-17 16:35 40.87840 156.75520 35224 ft 554 kts 56°
2026-04-17 16:36 40.91194 156.84698 35203 ft 554 kts 56°
2026-04-17 16:36 40.94538 156.93880 35209 ft 553 kts 56°
2026-04-17 16:37 40.97866 157.03054 35203 ft 552 kts 56°
2026-04-17 16:37 41.01181 157.12214 35203 ft 552 kts 56°
2026-04-17 16:38 41.04493 157.21394 35200 ft 552 kts 56°
2026-04-17 16:38 41.07792 157.30573 35194 ft 550 kts 56°
2026-04-17 16:39 41.11052 157.39671 35194 ft 549 kts 56°
2026-04-17 16:39 41.14327 157.48837 35186 ft 549 kts 56°
2026-04-17 16:40 41.17595 157.58012 35191 ft 549 kts 56°
2026-04-17 16:40 41.20841 157.67161 35224 ft 547 kts 56°
2026-04-17 16:41 41.24078 157.76307 35171 ft 547 kts 56°
2026-04-17 16:41 41.27307 157.85462 35184 ft 547 kts 56°
2026-04-17 16:42 41.30510 157.94577 35174 ft 545 kts 56°
2026-04-17 16:42 41.33718 158.03735 35178 ft 545 kts 56°
2026-04-17 16:43 41.36918 158.12894 35169 ft 545 kts 56°
2026-04-17 16:43 41.40110 158.22062 35196 ft 545 kts 56°
2026-04-17 16:44 41.43267 158.31162 35167 ft 544 kts 56°
2026-04-17 16:44 41.46436 158.40327 35167 ft 544 kts 56°
2026-04-17 16:45 41.49602 158.49508 35159 ft 544 kts 56°
2026-04-17 16:45 41.52758 158.58693 35160 ft 545 kts 56°
2026-04-17 16:46 41.55911 158.67899 35154 ft 545 kts 56°
2026-04-17 16:46 41.59040 158.77067 35152 ft 545 kts 56°
2026-04-17 16:47 41.62175 158.86283 35171 ft 545 kts 56°
2026-04-17 16:47 41.65303 158.95510 35143 ft 544 kts 57°
2026-04-17 16:48 41.67895 159.03176 35145 ft 544 kts 57°
2026-04-17 16:48 41.71008 159.12411 35137 ft 545 kts 57°
2026-04-17 16:49 41.74116 159.21663 35157 ft 545 kts 57°
2026-04-17 16:49 41.77219 159.30939 35127 ft 544 kts 57°
2026-04-17 16:50 41.80309 159.40200 35123 ft 544 kts 57°
2026-04-17 16:50 41.83392 159.49469 35125 ft 545 kts 57°
2026-04-17 16:51 41.86468 159.58755 35114 ft 544 kts 57°
2026-04-17 16:51 41.89530 159.68029 35112 ft 543 kts 57°
2026-04-17 16:52 41.92565 159.77248 35113 ft 543 kts 57°
2026-04-17 16:52 41.95615 159.86544 35133 ft 543 kts 57°
2026-04-17 16:53 41.98650 159.95832 35100 ft 542 kts 57°
2026-04-17 16:53 42.01750 160.05047 35101 ft 539 kts 55°
2026-04-17 16:54 42.05019 160.14113 35094 ft 538 kts 54°
2026-04-17 16:54 42.08303 160.23164 35113 ft 538 kts 54°
2026-04-17 16:55 42.11554 160.32226 35100 ft 537 kts 54°
2026-04-17 16:55 42.14784 160.41300 35086 ft 537 kts 54°
2026-04-17 16:56 42.17988 160.50342 35083 ft 537 kts 54°
2026-04-17 16:56 42.21206 160.59453 35084 ft 537 kts 55°
2026-04-17 16:57 42.24392 160.68508 35075 ft 536 kts 55°
2026-04-17 16:57 42.27589 160.77613 35073 ft 536 kts 55°
2026-04-17 16:58 42.30774 160.86715 35074 ft 536 kts 55°
2026-04-17 16:58 42.33953 160.95833 35070 ft 535 kts 56°
2026-04-17 16:59 42.37117 161.04942 35061 ft 535 kts 56°
2026-04-17 16:59 42.40257 161.14004 35061 ft 535 kts 56°
2026-04-17 17:00 42.43412 161.23137 35082 ft 535 kts 56°
2026-04-17 17:00 42.46558 161.32284 35053 ft 534 kts 56°
2026-04-17 17:01 42.49686 161.41403 35045 ft 534 kts 56°
2026-04-17 17:01 42.52792 161.50486 35047 ft 534 kts 57°
2026-04-17 17:02 42.55910 161.59635 35036 ft 534 kts 57°
2026-04-17 17:02 42.59017 161.68784 35037 ft 534 kts 57°
2026-04-17 17:03 42.62117 161.77942 35038 ft 534 kts 57°
2026-04-17 17:03 42.65213 161.87121 35040 ft 534 kts 58°
2026-04-17 17:04 42.68298 161.96296 35032 ft 534 kts 58°
2026-04-17 17:04 42.71377 162.05483 35034 ft 534 kts 58°
2026-04-17 17:05 42.74448 162.14680 35019 ft 534 kts 58°
2026-04-17 17:05 42.77511 162.23885 35018 ft 534 kts 58°
2026-04-17 17:06 42.80570 162.33107 35022 ft 534 kts 59°
2026-04-17 17:06 42.83600 162.42273 35014 ft 534 kts 59°
2026-04-17 17:07 42.86642 162.51508 35014 ft 534 kts 59°
2026-04-17 17:07 42.89676 162.60747 35028 ft 534 kts 60°
2026-04-17 17:08 42.92712 162.70023 34998 ft 535 kts 60°
2026-04-17 17:08 42.95739 162.79308 34995 ft 535 kts 60°
2026-04-17 17:09 42.98763 162.88616 34992 ft 536 kts 60°
2026-04-17 17:09 43.01776 162.97924 34972 ft 536 kts 61°
2026-04-17 17:10 43.04787 163.07257 34973 ft 537 kts 61°
2026-04-17 17:10 43.07797 163.16615 34988 ft 537 kts 61°
2026-04-17 17:11 43.10778 163.25920 34959 ft 537 kts 61°
2026-04-17 17:11 43.13770 163.35287 34968 ft 537 kts 62°
2026-04-17 17:12 43.16763 163.44693 34963 ft 538 kts 62°
2026-04-17 17:12 43.19748 163.54112 34952 ft 538 kts 62°
2026-04-17 17:13 43.22722 163.63530 34953 ft 539 kts 62°
2026-04-17 17:13 43.25690 163.72959 34955 ft 539 kts 63°
2026-04-17 17:14 43.28658 163.82422 34945 ft 540 kts 63°
2026-04-17 17:15 43.33075 163.96568 34933 ft 540 kts 63°
2026-04-17 17:15 43.36025 164.06056 34928 ft 540 kts 64°
2026-04-17 17:16 43.38967 164.15558 34921 ft 540 kts 65°
2026-04-17 17:16 43.41907 164.25086 34916 ft 540 kts 65°
2026-04-17 17:17 43.44835 164.34608 34918 ft 540 kts 65°
2026-04-17 17:17 43.47761 164.44160 34906 ft 541 kts 66°
2026-04-17 17:18 43.50657 164.53649 34901 ft 541 kts 66°
2026-04-17 17:18 43.53566 164.63217 34903 ft 541 kts 66°
2026-04-17 17:19 43.56469 164.72798 34893 ft 541 kts 67°
2026-04-17 17:19 43.59375 164.82424 34889 ft 544 kts 67°
2026-04-17 17:20 43.62274 164.92066 34890 ft 544 kts 67°
2026-04-17 17:20 43.65162 165.01711 34881 ft 544 kts 67°
2026-04-17 17:21 43.68029 165.11319 34870 ft 544 kts 68°
2026-04-17 17:21 43.70921 165.21046 34873 ft 547 kts 68°
2026-04-17 17:22 43.73803 165.30780 34877 ft 547 kts 68°
2026-04-17 17:22 43.76680 165.40531 34870 ft 547 kts 68°
2026-04-17 17:23 43.79544 165.50276 34862 ft 547 kts 68°
2026-04-17 17:23 43.82385 165.59979 34862 ft 547 kts 68°
2026-04-17 17:24 43.85235 165.69751 34853 ft 547 kts 68°
2026-04-17 17:24 43.88076 165.79531 34837 ft 547 kts 69°
2026-04-17 17:25 43.90916 165.89350 34849 ft 550 kts 70°
2026-04-17 17:25 43.93766 165.99234 34837 ft 551 kts 70°
2026-04-17 17:26 43.96603 166.09115 34833 ft 551 kts 70°
2026-04-17 17:26 43.99412 166.18938 34830 ft 552 kts 71°
2026-04-17 17:27 44.02243 166.28882 34818 ft 555 kts 71°
2026-04-17 17:27 44.05078 166.38872 34814 ft 555 kts 71°
2026-04-17 17:28 44.07900 166.48857 34811 ft 555 kts 71°
2026-04-17 17:28 44.10721 166.58877 34804 ft 558 kts 72°
2026-04-17 17:29 44.13546 166.68958 34803 ft 559 kts 72°
2026-04-17 17:29 44.16362 166.79045 34798 ft 559 kts 72°
2026-04-17 17:30 44.19170 166.89146 34778 ft 559 kts 73°
2026-04-17 17:30 44.21983 166.99311 34791 ft 563 kts 73°
2026-04-17 17:31 44.24780 167.09457 34784 ft 564 kts 73°
2026-04-17 17:31 44.27588 167.19683 34782 ft 564 kts 73°
2026-04-17 17:32 44.30387 167.29922 34778 ft 566 kts 74°
2026-04-17 17:32 44.33189 167.40222 34771 ft 568 kts 74°
2026-04-17 17:33 44.35984 167.50531 34763 ft 568 kts 74°
2026-04-17 17:33 44.38776 167.60869 34758 ft 569 kts 75°
2026-04-17 17:34 44.41571 167.71280 34758 ft 573 kts 76°
2026-04-17 17:34 44.44353 167.81673 34749 ft 574 kts 76°
2026-04-17 17:35 44.47146 167.92151 34711 ft 574 kts 77°
2026-04-17 17:35 44.49483 168.00964 34748 ft 579 kts 77°
2026-04-17 17:36 44.52287 168.11586 34741 ft 581 kts 77°
2026-04-17 17:36 44.55074 168.22169 34730 ft 581 kts 77°
2026-04-17 17:37 44.57868 168.32831 34719 ft 583 kts 78°
2026-04-17 17:37 44.60658 168.43535 34722 ft 583 kts 78°
2026-04-17 17:38 44.63420 168.54173 34717 ft 583 kts 78°
2026-04-17 17:38 44.66193 168.64900 34698 ft 584 kts 79°
2026-04-17 17:39 44.68955 168.75643 34697 ft 584 kts 79°
2026-04-17 17:39 44.71708 168.86399 34701 ft 584 kts 79°
2026-04-17 17:40 44.74451 168.97163 34691 ft 584 kts 79°
2026-04-17 17:40 44.77166 169.07864 34688 ft 584 kts 79°
2026-04-17 17:41 44.79888 169.18650 34681 ft 584 kts 79°
2026-04-17 17:41 44.82597 169.29428 34675 ft 584 kts 79°
2026-04-17 17:42 44.85296 169.40224 34668 ft 584 kts 79°
2026-04-17 17:42 44.87985 169.51026 34664 ft 584 kts 79°
2026-04-17 17:43 44.90665 169.61843 34653 ft 584 kts 79°
2026-04-17 17:43 44.93333 169.72665 34648 ft 585 kts 79°
2026-04-17 17:44 44.95997 169.83527 34650 ft 585 kts 79°
2026-04-17 17:44 44.98634 169.94320 34641 ft 585 kts 79°
2026-04-17 17:45 45.01306 170.05212 34626 ft 586 kts 79°
2026-04-17 17:45 45.04036 170.16090 34631 ft 587 kts 79°
2026-04-17 17:46 45.06773 170.26982 34625 ft 587 kts 79°
2026-04-17 17:46 45.09491 170.37885 34580 ft 587 kts 79°
2026-04-17 17:47 45.12196 170.48822 34620 ft 590 kts 79°
2026-04-17 17:47 45.14900 170.59813 34611 ft 591 kts 79°
2026-04-17 17:48 45.17582 170.70756 34609 ft 591 kts 79°
2026-04-17 17:48 45.18926 170.76260 34590 ft 591 kts 79°
2026-04-17 17:49 45.22949 170.92820 34605 ft 592 kts 80°
2026-04-17 17:49 45.25625 171.03908 34597 ft 593 kts 80°
2026-04-17 17:50 45.28275 171.14933 34584 ft 592 kts 80°
2026-04-17 17:50 45.30920 171.25983 34587 ft 590 kts 80°
2026-04-17 17:51 45.33550 171.37040 34574 ft 589 kts 80°
2026-04-17 17:51 45.36162 171.48086 34554 ft 589 kts 79°
2026-04-17 17:52 45.38756 171.59099 34570 ft 586 kts 79°
2026-04-17 17:52 45.41335 171.70103 34561 ft 586 kts 80°
2026-04-17 17:53 45.43902 171.81116 34557 ft 586 kts 80°
2026-04-17 17:53 45.46461 171.92150 34551 ft 588 kts 79°
2026-04-17 17:54 45.48996 172.03142 34549 ft 588 kts 79°
2026-04-17 17:54 45.51541 172.14221 34544 ft 587 kts 80°
2026-04-17 17:55 45.54069 172.25276 34527 ft 586 kts 79°
2026-04-17 17:55 45.56587 172.36370 34534 ft 589 kts 79°
2026-04-17 17:56 45.59104 172.47505 34534 ft 589 kts 79°
2026-04-17 17:56 45.61609 172.58635 34525 ft 589 kts 79°
2026-04-17 17:57 45.64104 172.69780 34525 ft 589 kts 79°
2026-04-17 17:57 45.66588 172.80938 34520 ft 589 kts 79°
2026-04-17 17:58 45.69061 172.92107 34520 ft 589 kts 79°
2026-04-17 17:58 45.71523 173.03279 34517 ft 588 kts 79°
2026-04-17 17:59 45.73957 173.14385 34506 ft 588 kts 79°
2026-04-17 17:59 45.76395 173.25574 34506 ft 588 kts 79°
2026-04-17 18:00 45.78818 173.36750 34505 ft 586 kts 79°
2026-04-17 18:00 45.81222 173.47890 34506 ft 584 kts 79°
2026-04-17 18:01 45.83613 173.59045 34500 ft 584 kts 79°
2026-04-17 18:01 45.85993 173.70201 34441 ft 584 kts 79°
2026-04-17 18:02 45.88343 173.81285 34495 ft 585 kts 79°
2026-04-17 18:02 45.90702 173.92469 34496 ft 585 kts 79°
2026-04-17 18:03 45.93055 174.03679 34487 ft 585 kts 79°
2026-04-17 18:03 45.95393 174.14869 34475 ft 581 kts 79°
2026-04-17 18:04 45.97698 174.25962 34483 ft 577 kts 79°
2026-04-17 18:04 45.99982 174.37038 34483 ft 577 kts 79°
2026-04-17 18:05 46.02243 174.48062 34468 ft 577 kts 79°
2026-04-17 18:05 46.04502 174.59124 34492 ft 575 kts 79°
2026-04-17 18:06 46.06737 174.70121 34464 ft 570 kts 79°
2026-04-17 18:06 46.08946 174.81065 34479 ft 569 kts 80°
2026-04-17 18:07 46.11146 174.92041 34466 ft 572 kts 80°
2026-04-17 18:07 46.13349 175.03084 34468 ft 573 kts 80°
2026-04-17 18:08 46.15544 175.14133 34461 ft 573 kts 80°
2026-04-17 18:08 46.17716 175.25130 34445 ft 573 kts 80°
2026-04-17 18:09 46.19891 175.36214 34460 ft 575 kts 80°
2026-04-17 18:09 46.22060 175.47327 34462 ft 575 kts 80°
2026-04-17 18:10 46.24220 175.58456 34462 ft 575 kts 80°
2026-04-17 18:10 46.26369 175.69596 34459 ft 576 kts 80°
2026-04-17 18:11 46.28513 175.80775 34455 ft 576 kts 80°
2026-04-17 18:11 46.30643 175.91940 34462 ft 576 kts 80°
2026-04-17 18:12 46.32761 176.03104 34426 ft 575 kts 81°
2026-04-17 18:12 46.34852 176.14202 34456 ft 576 kts 81°
2026-04-17 18:13 46.36946 176.25387 34454 ft 576 kts 81°
2026-04-17 18:13 46.39033 176.36593 34454 ft 576 kts 81°
2026-04-17 18:14 46.41110 176.47812 34456 ft 576 kts 81°
2026-04-17 18:14 46.43172 176.59021 34457 ft 575 kts 81°
2026-04-17 18:15 46.45226 176.70253 34450 ft 575 kts 81°
2026-04-17 18:15 46.47254 176.81407 34423 ft 575 kts 81°
2026-04-17 18:16 46.49284 176.92651 34454 ft 576 kts 81°
2026-04-17 18:16 46.51306 177.03916 34453 ft 576 kts 81°
2026-04-17 18:17 46.53315 177.15175 34457 ft 576 kts 81°
2026-04-17 18:17 46.56312 177.32109 34457 ft 577 kts 81°
2026-04-17 18:18 46.58299 177.43423 34462 ft 577 kts 81°
2026-04-17 18:18 46.60262 177.54665 34462 ft 577 kts 81°
2026-04-17 18:19 46.62225 177.65989 34463 ft 578 kts 81°
2026-04-17 18:19 46.64180 177.77344 34468 ft 579 kts 81°
2026-04-17 18:20 46.65803 177.86818 34468 ft 579 kts 82°
2026-04-17 18:20 46.67745 177.98219 34446 ft 579 kts 81°
2026-04-17 18:21 46.69669 178.09585 34490 ft 576 kts 81°
2026-04-17 18:21 46.71576 178.20937 34489 ft 576 kts 82°
2026-04-17 18:22 46.73455 178.32197 34492 ft 576 kts 82°
2026-04-17 18:22 46.75333 178.43528 34503 ft 573 kts 81°
2026-04-17 18:23 46.77188 178.54776 34516 ft 569 kts 82°
2026-04-17 18:23 46.79025 178.66001 34514 ft 569 kts 82°
2026-04-17 18:24 46.80852 178.77248 34517 ft 569 kts 82°
2026-04-17 18:24 46.82668 178.88492 34532 ft 568 kts 81°
2026-04-17 18:25 46.84469 178.99720 34530 ft 568 kts 81°
2026-04-17 18:25 46.86256 179.10944 34544 ft 568 kts 82°
2026-04-17 18:26 46.88033 179.22180 34542 ft 568 kts 81°
2026-04-17 18:26 46.89804 179.33455 34549 ft 569 kts 81°
2026-04-17 18:27 46.91557 179.44690 34564 ft 569 kts 81°
2026-04-17 18:27 46.93308 179.55984 34579 ft 569 kts 81°
2026-04-17 18:28 46.95048 179.67299 34574 ft 569 kts 81°
2026-04-17 18:28 46.96777 179.78614 34589 ft 569 kts 81°
2026-04-17 18:29 46.98495 179.89932 34610 ft 569 kts 81°
2026-04-17 18:29 46.99962 -179.98689 34611 ft 565 kts 88°
2026-04-17 18:30 47.00606 -179.87204 34609 ft 565 kts 90°
2026-04-17 18:30 47.01079 -179.75791 34610 ft 565 kts 91°
2026-04-17 18:31 47.01523 -179.64273 34623 ft 565 kts 91°
2026-04-17 18:31 47.01970 -179.52785 34626 ft 565 kts 91°
2026-04-17 18:32 47.02417 -179.41301 34637 ft 564 kts 91°
2026-04-17 18:32 47.02852 -179.29875 34645 ft 564 kts 91°
2026-04-17 18:33 47.03278 -179.18387 34649 ft 564 kts 91°
2026-04-17 18:33 47.03692 -179.06888 34660 ft 565 kts 91°
2026-04-17 18:34 47.04095 -178.95360 34678 ft 566 kts 91°
2026-04-17 18:34 47.04484 -178.83891 34694 ft 566 kts 91°
2026-04-17 18:35 47.04865 -178.72357 34684 ft 566 kts 91°
2026-04-17 18:35 47.05233 -178.60824 34703 ft 567 kts 91°
2026-04-17 18:36 47.05591 -178.49263 34726 ft 566 kts 91°
2026-04-17 18:36 47.05938 -178.37706 34717 ft 566 kts 91°
2026-04-17 18:37 47.06272 -178.26163 34730 ft 566 kts 91°
2026-04-17 18:37 47.06592 -178.14712 34739 ft 565 kts 91°
2026-04-17 18:38 47.06902 -178.03172 34744 ft 565 kts 91°
2026-04-17 18:38 47.07201 -177.91628 34758 ft 565 kts 91°
2026-04-17 18:39 47.07488 -177.80104 34771 ft 565 kts 91°
2026-04-17 18:39 47.07763 -177.68582 34783 ft 565 kts 91°
2026-04-17 18:40 47.08026 -177.57114 34783 ft 565 kts 91°
2026-04-17 18:40 47.08278 -177.45598 34795 ft 564 kts 91°
2026-04-17 18:41 47.08518 -177.34090 34810 ft 564 kts 91°
2026-04-17 18:41 47.08747 -177.22591 34810 ft 564 kts 91°
2026-04-17 18:42 47.08964 -177.11091 34816 ft 563 kts 91°
2026-04-17 18:42 47.09169 -176.99602 34840 ft 562 kts 91°
2026-04-17 18:43 47.09361 -176.88218 34840 ft 561 kts 91°
2026-04-17 18:43 47.09543 -176.76774 34851 ft 561 kts 91°
2026-04-17 18:44 47.09713 -176.65320 34861 ft 562 kts 91°
2026-04-17 18:44 47.09873 -176.53836 34878 ft 563 kts 91°
2026-04-17 18:45 47.10022 -176.42345 34879 ft 563 kts 91°
2026-04-17 18:45 47.10158 -176.30854 34900 ft 563 kts 91°
2026-04-17 18:46 47.10284 -176.19361 34903 ft 563 kts 91°
2026-04-17 18:46 47.10397 -176.07934 34903 ft 563 kts 91°
2026-04-17 18:47 47.10499 -175.96429 34915 ft 563 kts 91°
2026-04-17 18:47 47.10590 -175.84926 34923 ft 563 kts 91°
2026-04-17 18:48 47.10669 -175.73448 34927 ft 562 kts 91°
2026-04-17 18:48 47.10736 -175.62042 34927 ft 561 kts 91°
2026-04-17 18:49 47.10792 -175.50548 34944 ft 561 kts 91°
2026-04-17 18:49 47.10837 -175.39094 34944 ft 561 kts 91°
2026-04-17 18:50 47.10870 -175.27624 34958 ft 561 kts 91°
2026-04-17 18:50 47.10892 -175.16173 34971 ft 561 kts 92°
2026-04-17 18:51 47.10902 -175.04780 34978 ft 561 kts 91°
2026-04-17 18:51 47.10901 -174.93318 34985 ft 562 kts 92°
2026-04-17 18:52 47.10889 -174.81844 34993 ft 562 kts 92°
2026-04-17 18:52 47.10865 -174.70365 35007 ft 562 kts 92°
2026-04-17 18:53 47.10830 -174.58894 35006 ft 562 kts 91°
2026-04-17 18:53 47.10783 -174.47474 35021 ft 562 kts 91°
2026-04-17 18:54 47.10725 -174.35997 35031 ft 562 kts 92°
2026-04-17 18:54 47.10655 -174.24518 35031 ft 562 kts 92°
2026-04-17 18:55 47.10574 -174.13027 35042 ft 561 kts 91°
2026-04-17 18:55 47.10481 -174.01569 35053 ft 560 kts 91°
2026-04-17 18:56 47.10378 -173.90219 35067 ft 560 kts 91°
2026-04-17 18:56 47.10263 -173.78780 35065 ft 560 kts 91°
2026-04-17 18:57 47.10137 -173.67366 35078 ft 559 kts 91°
2026-04-17 18:57 47.10000 -173.55969 35086 ft 558 kts 91°
2026-04-17 18:58 47.09851 -173.44557 35088 ft 558 kts 91°
2026-04-17 18:58 47.09691 -173.33225 35102 ft 559 kts 91°
2026-04-17 18:59 47.09520 -173.21816 35111 ft 559 kts 91°
2026-04-17 18:59 47.09338 -173.10408 35110 ft 559 kts 91°
2026-04-17 19:00 47.09144 -172.99001 35119 ft 559 kts 91°
2026-04-17 19:00 47.08938 -172.87603 35135 ft 559 kts 91°
2026-04-17 19:01 47.08722 -172.76202 35132 ft 559 kts 91°
2026-04-17 19:01 47.08494 -172.64804 35143 ft 559 kts 91°
2026-04-17 19:02 47.08257 -172.53488 35154 ft 558 kts 91°
2026-04-17 19:02 47.08007 -172.42110 35154 ft 557 kts 91°
2026-04-17 19:03 47.07746 -172.30734 35165 ft 557 kts 91°
2026-04-17 19:03 47.07474 -172.19363 35178 ft 557 kts 91°
2026-04-17 19:04 47.07190 -172.07991 35189 ft 556 kts 91°
2026-04-17 19:04 47.06897 -171.96714 35189 ft 556 kts 91°
2026-04-17 19:05 47.06592 -171.85377 35200 ft 556 kts 91°
2026-04-17 19:05 47.06276 -171.74038 35218 ft 556 kts 90°
2026-04-17 19:06 47.05947 -171.62679 35208 ft 557 kts 91°
2026-04-17 19:06 47.05608 -171.51321 35208 ft 557 kts 91°
2026-04-17 19:07 47.05260 -171.40038 35222 ft 557 kts 91°
2026-04-17 19:07 47.04897 -171.28676 35222 ft 557 kts 91°
2026-04-17 19:08 47.04588 -171.19226 35227 ft 557 kts 91°
2026-04-17 19:08 47.04142 -171.06031 35241 ft 558 kts 91°
2026-04-17 19:09 47.03811 -170.96508 35238 ft 558 kts 91°
2026-04-17 19:09 47.03408 -170.85207 35249 ft 559 kts 91°
2026-04-17 19:10 47.02991 -170.73822 35260 ft 559 kts 91°
2026-04-17 19:10 47.02562 -170.62436 35260 ft 560 kts 91°
2026-04-17 19:11 47.02121 -170.51041 35267 ft 559 kts 91°
2026-04-17 19:11 47.01670 -170.39661 35271 ft 560 kts 91°
2026-04-17 19:12 47.01207 -170.28269 35273 ft 560 kts 91°
2026-04-17 19:12 47.00732 -170.16877 35279 ft 559 kts 91°
2026-04-17 19:13 47.00249 -170.05561 35290 ft 559 kts 91°
2026-04-17 19:13 46.99718 -169.94203 35292 ft 559 kts 92°
2026-04-17 19:14 46.99078 -169.82856 35295 ft 559 kts 92°
2026-04-17 19:14 46.98412 -169.71512 35303 ft 559 kts 92°
2026-04-17 19:15 46.97746 -169.60177 35308 ft 558 kts 92°
2026-04-17 19:15 46.97077 -169.48867 35309 ft 557 kts 92°
2026-04-17 19:16 46.96398 -169.37555 35314 ft 557 kts 92°
2026-04-17 19:16 46.95713 -169.26326 35322 ft 557 kts 92°
2026-04-17 19:17 46.95012 -169.15021 35319 ft 557 kts 92°
2026-04-17 19:17 46.94301 -169.03739 35322 ft 557 kts 92°
2026-04-17 19:18 46.93577 -168.92437 35327 ft 557 kts 92°
2026-04-17 19:18 46.92843 -168.81138 35336 ft 556 kts 92°
2026-04-17 19:19 46.92098 -168.69865 35335 ft 556 kts 92°
2026-04-17 19:19 46.91343 -168.58608 35341 ft 556 kts 92°
2026-04-17 19:20 46.90577 -168.47359 35356 ft 556 kts 92°
2026-04-17 19:20 46.89804 -168.36163 35343 ft 556 kts 92°
2026-04-17 19:21 46.89014 -168.24891 35351 ft 557 kts 92°
2026-04-17 19:21 46.88214 -168.13622 35353 ft 557 kts 92°
2026-04-17 19:22 46.87403 -168.02369 35349 ft 556 kts 92°
2026-04-17 19:22 46.86587 -167.91202 35363 ft 556 kts 92°
2026-04-17 19:23 46.85334 -167.74329 35360 ft 556 kts 92°
2026-04-17 19:24 46.84484 -167.63081 35365 ft 556 kts 92°
2026-04-17 19:24 46.83624 -167.51843 35363 ft 557 kts 92°
2026-04-17 19:25 46.82756 -167.40657 35361 ft 557 kts 92°
2026-04-17 19:25 46.81873 -167.29417 35368 ft 557 kts 92°
2026-04-17 19:26 46.80977 -167.18153 35371 ft 557 kts 92°
2026-04-17 19:26 46.80071 -167.06906 35371 ft 557 kts 92°
2026-04-17 19:27 46.79154 -166.95663 35373 ft 557 kts 93°
2026-04-17 19:27 46.78226 -166.84429 35382 ft 557 kts 92°
2026-04-17 19:28 46.77287 -166.73202 35379 ft 557 kts 92°
2026-04-17 19:28 46.76342 -166.62031 35381 ft 558 kts 92°
2026-04-17 19:29 46.75381 -166.50797 35379 ft 558 kts 93°
2026-04-17 19:29 46.74408 -166.39569 35382 ft 558 kts 92°
2026-04-17 19:30 46.73424 -166.28342 35385 ft 558 kts 92°
2026-04-17 19:30 46.72430 -166.17112 35390 ft 558 kts 92°
2026-04-17 19:31 46.71424 -166.05893 35403 ft 558 kts 92°
2026-04-17 19:31 46.70419 -165.94861 35384 ft 540 kts 92°
2026-04-17 19:31 46.69916 -165.89447 35387 ft 525 kts 92°
2026-04-17 19:32 46.69438 -165.84301 35390 ft 516 kts 92°
2026-04-17 19:32 46.68486 -165.73957 35393 ft 515 kts 92°
2026-04-17 19:33 46.67529 -165.63619 35396 ft 515 kts 92°
2026-04-17 19:33 46.66556 -165.53271 35399 ft 516 kts 92°
2026-04-17 19:34 46.65573 -165.42971 35396 ft 516 kts 92°
2026-04-17 19:34 46.64576 -165.32624 35395 ft 516 kts 92°
2026-04-17 19:35 46.63570 -165.22277 35403 ft 517 kts 91°
2026-04-17 19:35 46.62553 -165.11911 35400 ft 517 kts 91°
2026-04-17 19:36 46.61526 -165.01555 35402 ft 517 kts 92°
2026-04-17 19:36 46.60490 -164.91198 35407 ft 517 kts 92°
2026-04-17 19:37 46.59444 -164.80844 35405 ft 517 kts 91°
2026-04-17 19:37 46.58389 -164.70497 35403 ft 517 kts 91°
2026-04-17 19:38 46.57332 -164.60215 35404 ft 517 kts 91°
2026-04-17 19:38 46.56257 -164.49864 35406 ft 517 kts 92°
2026-04-17 19:39 46.55174 -164.39523 35402 ft 517 kts 91°
2026-04-17 19:39 46.54089 -164.29260 35408 ft 516 kts 91°
2026-04-17 19:40 46.52991 -164.18957 35404 ft 516 kts 92°
2026-04-17 19:40 46.51882 -164.08650 35424 ft 516 kts 92°
2026-04-17 19:41 46.50765 -163.98350 35407 ft 516 kts 91°
2026-04-17 19:41 46.49644 -163.88109 35409 ft 516 kts 91°
2026-04-17 19:42 46.48507 -163.77819 35401 ft 516 kts 92°
2026-04-17 19:42 46.47361 -163.67528 35416 ft 516 kts 91°
2026-04-17 19:43 46.46204 -163.57227 35409 ft 516 kts 91°
2026-04-17 19:43 46.45040 -163.46942 35407 ft 516 kts 91°
2026-04-17 19:44 46.43874 -163.36730 35405 ft 516 kts 91°
2026-04-17 19:44 46.42689 -163.26438 35405 ft 516 kts 92°
2026-04-17 19:45 46.41498 -163.16171 35413 ft 516 kts 92°
2026-04-17 19:45 46.40296 -163.05903 35417 ft 516 kts 92°
2026-04-17 19:46 46.39087 -162.95654 35402 ft 516 kts 92°
2026-04-17 19:46 46.37875 -162.85460 35411 ft 516 kts 92°
2026-04-17 19:47 46.36648 -162.75218 35408 ft 516 kts 92°
2026-04-17 19:47 46.35411 -162.64977 35408 ft 516 kts 92°
2026-04-17 19:48 46.34166 -162.54751 35407 ft 516 kts 92°
2026-04-17 19:48 46.32911 -162.44521 35412 ft 516 kts 91°
2026-04-17 19:49 46.31647 -162.34292 35408 ft 516 kts 91°
2026-04-17 19:49 46.30589 -162.25800 35409 ft 516 kts 92°
2026-04-17 19:50 46.29092 -162.13867 35407 ft 516 kts 92°
2026-04-17 19:50 46.27802 -162.03666 35412 ft 516 kts 91°
2026-04-17 19:51 46.26510 -161.93529 35408 ft 516 kts 92°
2026-04-17 19:51 46.25194 -161.83276 35410 ft 516 kts 92°
2026-04-17 19:52 46.23886 -161.73157 35430 ft 516 kts 91°
2026-04-17 19:52 46.22557 -161.62959 35406 ft 516 kts 91°
2026-04-17 19:53 46.21223 -161.52787 35407 ft 516 kts 92°
2026-04-17 19:53 46.19876 -161.42604 35403 ft 516 kts 92°
2026-04-17 19:54 46.18519 -161.32413 35408 ft 516 kts 91°
2026-04-17 19:54 46.17165 -161.22312 35401 ft 515 kts 91°
2026-04-17 19:55 46.15794 -161.12162 35404 ft 515 kts 92°
2026-04-17 19:55 46.14648 -161.03726 35401 ft 515 kts 92°
2026-04-17 19:56 46.13261 -160.93583 35409 ft 516 kts 92°
2026-04-17 19:56 46.11864 -160.83431 35398 ft 516 kts 92°
2026-04-17 19:57 46.10457 -160.73287 35396 ft 516 kts 92°
2026-04-17 19:57 46.09040 -160.63146 35398 ft 516 kts 92°
2026-04-17 19:58 46.07614 -160.53001 35402 ft 516 kts 91°
2026-04-17 19:58 46.06178 -160.42859 35390 ft 516 kts 91°
2026-04-17 19:59 46.04742 -160.32784 35393 ft 516 kts 92°
2026-04-17 19:59 46.03290 -160.22659 35394 ft 516 kts 92°
2026-04-17 20:00 46.01826 -160.12525 35401 ft 517 kts 91°
2026-04-17 20:00 46.00361 -160.02403 35532 ft 517 kts 90°
2026-04-17 20:01 45.99554 -159.92178 35749 ft 515 kts 84°
2026-04-17 20:01 45.99250 -159.87027 35864 ft 518 kts 84°
2026-04-17 20:01 45.98964 -159.81846 35989 ft 522 kts 83°
2026-04-17 20:01 45.98684 -159.76694 36166 ft 525 kts 83°
2026-04-17 20:02 45.98397 -159.71435 36254 ft 529 kts 83°
2026-04-17 20:02 45.97793 -159.60786 36466 ft 536 kts 84°
2026-04-17 20:02 45.97480 -159.55420 36570 ft 540 kts 84°
2026-04-17 20:03 45.97160 -159.50012 36685 ft 543 kts 84°
2026-04-17 20:03 45.96839 -159.44669 36867 ft 543 kts 84°
2026-04-17 20:03 45.96508 -159.39242 37122 ft 543 kts 84°
2026-04-17 20:03 45.96176 -159.33851 37396 ft 541 kts 84°
2026-04-17 20:04 45.95842 -159.28453 37668 ft 540 kts 84°
2026-04-17 20:04 45.95508 -159.23086 37940 ft 538 kts 84°
2026-04-17 20:04 45.95175 -159.17733 38188 ft 537 kts 85°
2026-04-17 20:04 45.94840 -159.12383 38428 ft 536 kts 85°
2026-04-17 20:05 45.94505 -159.07060 38658 ft 534 kts 85°
2026-04-17 20:05 45.94173 -159.01825 38888 ft 533 kts 85°
2026-04-17 20:05 45.93834 -158.96516 39012 ft 535 kts 85°
2026-04-17 20:06 45.93150 -158.85825 39129 ft 538 kts 86°
2026-04-17 20:06 45.92800 -158.80487 39275 ft 537 kts 86°
2026-04-17 20:06 45.92447 -158.75140 39364 ft 538 kts 86°
2026-04-17 20:07 45.91734 -158.64456 39373 ft 538 kts 86°
2026-04-17 20:07 45.91011 -158.53747 39377 ft 539 kts 87°
2026-04-17 20:08 45.90277 -158.42998 39369 ft 541 kts 87°
2026-04-17 20:08 45.89530 -158.32243 39365 ft 541 kts 87°
2026-04-17 20:09 45.88773 -158.21492 39365 ft 541 kts 87°
2026-04-17 20:09 45.88005 -158.10730 39380 ft 543 kts 88°
2026-04-17 20:10 45.87229 -157.99967 39358 ft 546 kts 88°
2026-04-17 20:10 45.86435 -157.89121 39360 ft 546 kts 88°
2026-04-17 20:11 45.85629 -157.78273 39370 ft 547 kts 89°
2026-04-17 20:11 45.84816 -157.67469 39357 ft 548 kts 89°
2026-04-17 20:12 45.83988 -157.56597 39353 ft 548 kts 89°
2026-04-17 20:12 45.83149 -157.45723 39351 ft 548 kts 89°
2026-04-17 20:13 45.82300 -157.34847 39354 ft 548 kts 90°
2026-04-17 20:13 45.81440 -157.23964 39344 ft 549 kts 90°
2026-04-17 20:14 45.80574 -157.13141 39341 ft 550 kts 90°
2026-04-17 20:14 45.79691 -157.02246 39336 ft 550 kts 90°
2026-04-17 20:15 45.78800 -156.91369 39336 ft 550 kts 91°
2026-04-17 20:15 45.77896 -156.80463 39335 ft 550 kts 91°
2026-04-17 20:16 45.76981 -156.69570 39333 ft 551 kts 91°
2026-04-17 20:16 45.76056 -156.58681 39335 ft 551 kts 92°
2026-04-17 20:17 45.75121 -156.47795 39332 ft 551 kts 92°
2026-04-17 20:17 45.74175 -156.36900 39322 ft 551 kts 92°
2026-04-17 20:18 45.73225 -156.26096 39319 ft 551 kts 92°
2026-04-17 20:18 45.72258 -156.15211 39325 ft 551 kts 93°
2026-04-17 20:19 45.71281 -156.04339 39310 ft 550 kts 93°
2026-04-17 20:19 45.70295 -155.93473 39308 ft 550 kts 93°
2026-04-17 20:20 45.69299 -155.82619 39305 ft 550 kts 93°
2026-04-17 20:20 45.68293 -155.71771 39299 ft 549 kts 94°
2026-04-17 20:21 45.67285 -155.61014 39309 ft 549 kts 94°
2026-04-17 20:21 45.66259 -155.50184 39308 ft 549 kts 94°
2026-04-17 20:22 45.65222 -155.39345 39296 ft 549 kts 94°
2026-04-17 20:22 45.64181 -155.28570 39291 ft 549 kts 94°
2026-04-17 20:23 45.63125 -155.17753 39293 ft 549 kts 94°
2026-04-17 20:23 45.62057 -155.06930 39286 ft 550 kts 94°
2026-04-17 20:24 45.60980 -154.96105 39289 ft 549 kts 94°
2026-04-17 20:24 45.59893 -154.85309 39290 ft 548 kts 95°
2026-04-17 20:25 45.58807 -154.74614 39282 ft 547 kts 95°
2026-04-17 20:25 45.57704 -154.63860 39279 ft 547 kts 95°
2026-04-17 20:26 45.56593 -154.53126 39273 ft 546 kts 95°
2026-04-17 20:26 45.55472 -154.42397 39273 ft 546 kts 95°
2026-04-17 20:27 45.54341 -154.31676 39268 ft 546 kts 95°
2026-04-17 20:27 45.53201 -154.20956 39266 ft 546 kts 96°
2026-04-17 20:28 45.52053 -154.10273 39262 ft 545 kts 96°
2026-04-17 20:28 45.50903 -153.99668 39260 ft 545 kts 96°
2026-04-17 20:29 45.49735 -153.88985 39252 ft 545 kts 96°
2026-04-17 20:29 45.48557 -153.78310 39253 ft 544 kts 96°
2026-04-17 20:30 45.46773 -153.62325 39246 ft 544 kts 97°
2026-04-17 20:30 45.45573 -153.51681 39243 ft 544 kts 97°
2026-04-17 20:31 45.44369 -153.41093 39237 ft 544 kts 97°
2026-04-17 20:31 45.43150 -153.30472 39238 ft 544 kts 97°
2026-04-17 20:32 45.41922 -153.19855 39228 ft 543 kts 98°
2026-04-17 20:32 45.40685 -153.09256 39224 ft 542 kts 98°
2026-04-17 20:33 45.39440 -152.98671 39224 ft 542 kts 98°
2026-04-17 20:33 45.38186 -152.88102 39222 ft 541 kts 98°
2026-04-17 20:34 45.36929 -152.77589 39216 ft 541 kts 98°
2026-04-17 20:34 45.35656 -152.67037 39211 ft 541 kts 98°
2026-04-17 20:35 45.34375 -152.56496 39203 ft 540 kts 99°
2026-04-17 20:35 45.33086 -152.45978 39200 ft 540 kts 99°
2026-04-17 20:36 45.31788 -152.35470 39195 ft 540 kts 99°
2026-04-17 20:36 45.30488 -152.25020 39194 ft 539 kts 99°
2026-04-17 20:37 45.29171 -152.14530 39192 ft 538 kts 99°
2026-04-17 20:37 45.27848 -152.04061 39184 ft 538 kts 99°
2026-04-17 20:38 45.26522 -151.93653 39178 ft 538 kts 99°
2026-04-17 20:38 45.25178 -151.83182 39178 ft 538 kts 100°
2026-04-17 20:39 45.23830 -151.72760 39178 ft 537 kts 100°
2026-04-17 20:39 45.22472 -151.62335 39179 ft 536 kts 100°
2026-04-17 20:40 45.21104 -151.51918 39170 ft 536 kts 101°
2026-04-17 20:40 45.19730 -151.41527 39165 ft 536 kts 101°
2026-04-17 20:41 45.18353 -151.31191 39160 ft 536 kts 101°
2026-04-17 20:41 45.16958 -151.20801 39154 ft 536 kts 101°
2026-04-17 20:42 45.15784 -151.12108 39150 ft 536 kts 101°
2026-04-17 20:42 45.14384 -151.01804 39151 ft 535 kts 101°
2026-04-17 20:43 45.12965 -150.91446 39141 ft 535 kts 101°
2026-04-17 20:43 45.11540 -150.81113 39138 ft 535 kts 101°
2026-04-17 20:44 45.10106 -150.70788 39129 ft 534 kts 102°
2026-04-17 20:44 45.08662 -150.60464 39127 ft 534 kts 102°
2026-04-17 20:45 45.07212 -150.50165 39121 ft 534 kts 102°
2026-04-17 20:45 45.05751 -150.39866 39122 ft 534 kts 102°
2026-04-17 20:46 45.04293 -150.29647 39115 ft 533 kts 102°
2026-04-17 20:46 45.02813 -150.19356 39111 ft 533 kts 102°
2026-04-17 20:47 45.01327 -150.09087 39107 ft 533 kts 102°
2026-04-17 20:47 44.99818 -149.98832 39086 ft 532 kts 104°
2026-04-17 20:48 44.98087 -149.88660 39100 ft 532 kts 105°
2026-04-17 20:48 44.96268 -149.78594 39099 ft 532 kts 105°
2026-04-17 20:49 44.94441 -149.68471 39091 ft 532 kts 105°
2026-04-17 20:49 44.92625 -149.58343 39088 ft 531 kts 105°
2026-04-17 20:50 44.90811 -149.48236 39085 ft 531 kts 105°
2026-04-17 20:50 44.88989 -149.38141 39085 ft 530 kts 106°
2026-04-17 20:51 44.87157 -149.28052 39085 ft 530 kts 106°
2026-04-17 20:51 44.85332 -149.18050 39079 ft 529 kts 106°
2026-04-17 20:52 44.83487 -149.08004 39081 ft 529 kts 106°
2026-04-17 20:52 44.81635 -148.97970 39078 ft 529 kts 106°
2026-04-17 20:53 44.79773 -148.87934 39067 ft 529 kts 107°
2026-04-17 20:53 44.77918 -148.77988 39075 ft 528 kts 107°
2026-04-17 20:54 44.76042 -148.67986 39072 ft 528 kts 107°
2026-04-17 20:54 44.74158 -148.57997 39070 ft 528 kts 107°
2026-04-17 20:55 44.72267 -148.48019 39068 ft 527 kts 107°
2026-04-17 20:55 44.70368 -148.38053 39067 ft 527 kts 107°
2026-04-17 20:56 44.68464 -148.28108 39061 ft 527 kts 108°
2026-04-17 20:56 44.66548 -148.18158 39057 ft 527 kts 108°
2026-04-17 20:57 44.64639 -148.08287 39060 ft 527 kts 108°
2026-04-17 20:57 44.62707 -147.98359 39056 ft 526 kts 108°
2026-04-17 20:58 44.60767 -147.88436 39051 ft 526 kts 108°
2026-04-17 20:58 44.58819 -147.78525 39050 ft 526 kts 108°
2026-04-17 20:59 44.56863 -147.68620 39047 ft 526 kts 108°
2026-04-17 20:59 44.54912 -147.58789 39044 ft 526 kts 108°
2026-04-17 21:00 44.52938 -147.48892 39046 ft 527 kts 108°
2026-04-17 21:00 44.51291 -147.40678 39042 ft 526 kts 109°